Wetterdaten: Montag, 02.10.2017
Datum Zeit Temp. Aussen Temp. o. S. +5cm Feuchte Auss BlattFeu 1 Luftdruck Regen Sonnenschein Regendauer Solar Windben Empfang
02.10.2017 00:00 14,7 C 14,4 C 12,8 C 81 % 0 lf 1015,5 hPa 0,0 l/m 0 min 0 min 0 W/m 18,8 km/h (3 Bft) 95,74 %
02.10.2017 00:02 14,7 C 14,4 C 12,8 C 81 % 0 lf 1015,6 hPa 0,0 l/m 0 min 0 min 0 W/m 14,6 km/h (3 Bft) 93,02 %
02.10.2017 00:04 14,6 C 14,4 C 12,8 C 81 % 0 lf 1015,6 hPa 0,0 l/m 0 min 0 min 0 W/m 23,0 km/h (4 Bft) 95,65 %
02.10.2017 00:07 14,6 C 14,4 C 12,8 C 81 % 0 lf 1015,6 hPa 0,0 l/m 0 min 0 min 0 W/m 12,6 km/h (3 Bft) 95,65 %
02.10.2017 00:08 14,6 C 14,4 C 12,8 C 81 % 0 lf 1015,6 hPa 0,0 l/m 0 min 0 min 0 W/m 20,9 km/h (4 Bft) 93,00 %
02.10.2017 00:10 14,6 C 14,4 C 12,8 C 81 % 0 lf 1015,5 hPa 0,0 l/m 0 min 0 min 0 W/m 16,7 km/h (3 Bft) 91,67 %
02.10.2017 00:12 14,6 C 14,4 C 12,8 C 81 % 0 lf 1015,6 hPa 0,0 l/m 0 min 0 min 0 W/m 12,6 km/h (3 Bft) 84,78 %
02.10.2017 00:14 14,6 C 14,4 C 12,8 C 81 % 0 lf 1015,6 hPa 0,0 l/m 0 min 0 min 0 W/m 16,7 km/h (3 Bft) 93,62 %
02.10.2017 00:16 14,6 C 14,4 C 12,8 C 81 % 0 lf 1015,6 hPa 0,0 l/m 0 min 0 min 0 W/m 14,6 km/h (3 Bft) 93,62 %
02.10.2017 00:18 14,5 C 14,4 C 12,8 C 81 % 0 lf 1015,6 hPa 0,0 l/m 0 min 0 min 0 W/m 16,7 km/h (3 Bft) 93,62 %
02.10.2017 00:20 14,5 C 14,4 C 12,8 C 81 % 0 lf 1015,6 hPa 0,0 l/m 0 min 0 min 0 W/m 12,6 km/h (3 Bft) 93,62 %
02.10.2017 00:22 14,5 C 14,4 C 12,8 C 81 % 0 lf 1015,6 hPa 0,0 l/m 0 min 0 min 0 W/m 16,7 km/h (3 Bft) 93,62 %
02.10.2017 00:24 14,5 C 14,4 C 12,8 C 82 % 0 lf 1015,6 hPa 0,0 l/m 0 min 0 min 0 W/m 16,7 km/h (3 Bft) 93,48 %
02.10.2017 00:26 14,5 C 14,4 C 12,8 C 82 % 0 lf 1015,6 hPa 0,0 l/m 0 min 0 min 0 W/m 14,6 km/h (3 Bft) 89,36 %
02.10.2017 00:28 14,4 C 14,4 C 12,8 C 82 % 0 lf 1015,5 hPa 0,0 l/m 0 min 0 min 0 W/m 16,7 km/h (3 Bft) 93,62 %
02.10.2017 00:30 14,5 C 14,4 C 12,8 C 82 % 0 lf 1015,4 hPa 0,0 l/m 0 min 0 min 0 W/m 18,8 km/h (3 Bft) 93,62 %
02.10.2017 00:32 14,4 C 14,4 C 12,8 C 82 % 0 lf 1015,4 hPa 0,0 l/m 0 min 0 min 0 W/m 16,7 km/h (3 Bft) 93,62 %
02.10.2017 00:34 14,4 C 14,4 C 12,8 C 82 % 0 lf 1015,3 hPa 0,0 l/m 0 min 0 min 0 W/m 16,7 km/h (3 Bft) 95,74 %
02.10.2017 00:36 14,4 C 14,4 C 12,8 C 82 % 0 lf 1015,3 hPa 0,0 l/m 0 min 0 min 0 W/m 18,8 km/h (3 Bft) 93,48 %
02.10.2017 00:38 14,4 C 14,4 C 12,8 C 82 % 0 lf 1015,3 hPa 0,0 l/m 0 min 0 min 0 W/m 14,6 km/h (3 Bft) 93,62 %
02.10.2017 00:40 14,4 C 14,4 C 12,8 C 82 % 0 lf 1015,2 hPa 0,0 l/m 0 min 0 min 0 W/m 16,7 km/h (3 Bft) 97,87 %
02.10.2017 00:42 14,4 C 14,4 C 12,8 C 82 % 0 lf 1015,1 hPa 0,0 l/m 0 min 0 min 0 W/m 18,8 km/h (3 Bft) 95,74 %
02.10.2017 00:44 14,4 C 13,9 C 12,8 C 82 % 0 lf 1015,0 hPa 0,0 l/m 0 min 0 min 0 W/m 18,8 km/h (3 Bft) 95,74 %
02.10.2017 00:46 14,4 C 13,9 C 12,8 C 82 % 0 lf 1015,0 hPa 0,0 l/m 0 min 0 min 0 W/m 14,6 km/h (3 Bft) 93,62 %
02.10.2017 00:48 14,4 C 13,9 C 12,8 C 82 % 0 lf 1015,0 hPa 0,0 l/m 0 min 0 min 0 W/m 16,7 km/h (3 Bft) 95,65 %
02.10.2017 00:50 14,4 C 13,9 C 12,8 C 82 % 0 lf 1015,0 hPa 0,0 l/m 0 min 0 min 0 W/m 14,6 km/h (3 Bft) 93,62 %
02.10.2017 00:52 14,3 C 13,9 C 12,8 C 82 % 0 lf 1015,0 hPa 0,0 l/m 0 min 0 min 0 W/m 12,6 km/h (3 Bft) 95,74 %
02.10.2017 00:54 14,3 C 13,9 C 12,8 C 82 % 0 lf 1015,2 hPa 0,0 l/m 0 min 0 min 0 W/m 14,6 km/h (3 Bft) 97,87 %
02.10.2017 00:56 14,3 C 13,9 C 12,8 C 82 % 0 lf 1015,1 hPa 0,0 l/m 0 min 0 min 0 W/m 10,5 km/h (2 Bft) 95,74 %
02.10.2017 00:58 14,3 C 13,9 C 12,8 C 82 % 0 lf 1015,0 hPa 0,0 l/m 0 min 0 min 0 W/m 14,6 km/h (3 Bft) 97,83 %
02.10.2017 01:00 14,3 C 13,9 C 12,8 C 82 % 0 lf 1015,0 hPa 0,0 l/m 0 min 0 min 0 W/m 16,7 km/h (3 Bft) 97,87 %
02.10.2017 01:02 14,3 C 13,9 C 12,8 C 82 % 0 lf 1015,0 hPa 0,0 l/m 0 min 0 min 0 W/m 18,8 km/h (3 Bft) 95,74 %
02.10.2017 01:04 14,2 C 13,9 C 12,8 C 82 % 0 lf 1015,0 hPa 0,0 l/m 0 min 0 min 0 W/m 12,6 km/h (3 Bft) 97,87 %
02.10.2017 01:06 14,2 C 13,9 C 12,8 C 82 % 0 lf 1015,0 hPa 0,0 l/m 0 min 0 min 0 W/m 14,6 km/h (3 Bft) 95,74 %
02.10.2017 01:08 14,2 C 13,9 C 12,8 C 82 % 0 lf 1015,0 hPa 0,0 l/m 0 min 0 min 0 W/m 10,5 km/h (2 Bft) 95,74 %
02.10.2017 01:10 14,2 C 13,9 C 12,8 C 82 % 0 lf 1014,9 hPa 0,0 l/m 0 min 0 min 0 W/m 10,5 km/h (2 Bft) 95,65 %
02.10.2017 01:12 14,2 C 13,9 C 12,8 C 82 % 0 lf 1014,9 hPa 0,0 l/m 0 min 0 min 0 W/m 12,6 km/h (3 Bft) 97,87 %
02.10.2017 01:14 14,2 C 13,9 C 12,8 C 82 % 0 lf 1014,8 hPa 0,0 l/m 0 min 0 min 0 W/m 12,6 km/h (3 Bft) 97,87 %
02.10.2017 01:16 14,2 C 13,9 C 12,8 C 82 % 0 lf 1014,7 hPa 0,0 l/m 0 min 0 min 0 W/m 18,8 km/h (3 Bft) 97,87 %
02.10.2017 01:18 14,2 C 13,9 C 12,8 C 83 % 0 lf 1014,7 hPa 0,0 l/m 0 min 0 min 0 W/m 16,7 km/h (3 Bft) 95,74 %
02.10.2017 01:20 14,2 C 13,9 C 12,8 C 83 % 0 lf 1014,6 hPa 0,0 l/m 0 min 0 min 0 W/m 16,7 km/h (3 Bft) 93,62 %
02.10.2017 01:22 14,2 C 13,9 C 12,8 C 83 % 0 lf 1014,5 hPa 0,0 l/m 0 min 0 min 0 W/m 14,6 km/h (3 Bft) 97,83 %
02.10.2017 01:24 14,2 C 13,9 C 12,8 C 83 % 0 lf 1014,5 hPa 0,0 l/m 0 min 0 min 0 W/m 14,6 km/h (3 Bft) 93,62 %
02.10.2017 01:26 14,2 C 13,9 C 12,8 C 83 % 0 lf 1014,6 hPa 0,0 l/m 0 min 0 min 0 W/m 18,8 km/h (3 Bft) 97,87 %
02.10.2017 01:28 14,2 C 13,9 C 12,8 C 83 % 0 lf 1014,6 hPa 0,0 l/m 0 min 0 min 0 W/m 16,7 km/h (3 Bft) 100,00 %
02.10.2017 01:30 14,2 C 13,9 C 12,8 C 83 % 0 lf 1014,6 hPa 0,0 l/m 0 min 0 min 0 W/m 18,8 km/h (3 Bft) 100,00 %
02.10.2017 01:32 14,2 C 13,9 C 12,8 C 83 % 0 lf 1014,6 hPa 0,0 l/m 0 min 0 min 0 W/m 14,6 km/h (3 Bft) 100,00 %
02.10.2017 01:34 14,2 C 13,9 C 12,8 C 83 % 0 lf 1014,6 hPa 0,0 l/m 0 min 0 min 0 W/m 12,6 km/h (3 Bft) 100,00 %
02.10.2017 01:36 14,2 C 13,9 C 12,8 C 83 % 0 lf 1014,6 hPa 0,0 l/m 0 min 0 min 4 W/m 10,5 km/h (2 Bft) 97,87 %
02.10.2017 01:38 14,2 C 13,9 C 12,8 C 83 % 0 lf 1014,6 hPa 0,0 l/m 0 min 0 min 5 W/m 10,5 km/h (2 Bft) 97,87 %
02.10.2017 01:40 14,2 C 13,9 C 12,8 C 83 % 0 lf 1014,6 hPa 0,0 l/m 0 min 0 min 5 W/m 16,7 km/h (3 Bft) 100,00 %
02.10.2017 01:42 14,2 C 13,9 C 12,8 C 83 % 0 lf 1014,5 hPa 0,0 l/m 0 min 0 min 1 W/m 14,6 km/h (3 Bft) 100,00 %
02.10.2017 01:44 14,2 C 13,9 C 12,8 C 83 % 0 lf 1014,5 hPa 0,0 l/m 0 min 0 min 0 W/m 14,6 km/h (3 Bft) 100,00 %
02.10.2017 01:46 14,2 C 13,9 C 12,8 C 83 % 0 lf 1014,4 hPa 0,0 l/m 0 min 0 min 0 W/m 10,5 km/h (2 Bft) 97,83 %
02.10.2017 01:48 14,2 C 13,9 C 12,8 C 83 % 0 lf 1014,3 hPa 0,0 l/m 0 min 0 min 0 W/m 10,5 km/h (2 Bft) 97,87 %
02.10.2017 01:50 14,2 C 13,9 C 12,8 C 83 % 0 lf 1014,3 hPa 0,0 l/m 0 min 0 min 0 W/m 16,7 km/h (3 Bft) 97,87 %
02.10.2017 01:52 14,2 C 13,9 C 12,8 C 83 % 0 lf 1014,3 hPa 0,0 l/m 0 min 0 min 0 W/m 16,7 km/h (3 Bft) 100,00 %
02.10.2017 01:54 14,2 C 13,9 C 12,8 C 83 % 0 lf 1014,2 hPa 0,0 l/m 0 min 0 min 0 W/m 14,6 km/h (3 Bft) 97,87 %
02.10.2017 01:56 14,2 C 13,9 C 12,8 C 83 % 0 lf 1014,0 hPa 0,0 l/m 0 min 0 min 0 W/m 18,8 km/h (3 Bft) 97,87 %
02.10.2017 01:58 14,2 C 13,9 C 12,8 C 83 % 0 lf 1014,0 hPa 0,0 l/m 0 min 0 min 0 W/m 12,6 km/h (3 Bft) 97,83 %
02.10.2017 02:00 14,2 C 13,9 C 12,8 C 83 % 0 lf 1013,9 hPa 0,0 l/m 0 min 0 min 0 W/m 16,7 km/h (3 Bft) 100,00 %
02.10.2017 02:02 14,2 C 13,9 C 12,8 C 83 % 0 lf 1013,8 hPa 0,0 l/m 0 min 0 min 0 W/m 14,6 km/h (3 Bft) 93,62 %
02.10.2017 02:04 14,2 C 13,9 C 12,8 C 83 % 0 lf 1013,7 hPa 0,0 l/m 0 min 0 min 0 W/m 20,9 km/h (4 Bft) 97,87 %
02.10.2017 02:06 14,2 C 13,9 C 12,8 C 83 % 0 lf 1013,7 hPa 0,0 l/m 0 min 0 min 0 W/m 18,8 km/h (3 Bft) 95,74 %
02.10.2017 02:08 14,2 C 13,9 C 12,8 C 83 % 0 lf 1013,7 hPa 0,0 l/m 0 min 0 min 0 W/m 20,9 km/h (4 Bft) 93,62 %
02.10.2017 02:10 14,2 C 13,9 C 12,8 C 83 % 0 lf 1013,7 hPa 0,0 l/m 0 min 0 min 0 W/m 20,9 km/h (4 Bft) 97,83 %
02.10.2017 02:12 14,2 C 13,9 C 12,8 C 83 % 0 lf 1013,6 hPa 0,0 l/m 0 min 0 min 0 W/m 20,9 km/h (4 Bft) 97,87 %
02.10.2017 02:14 14,2 C 13,9 C 12,8 C 83 % 0 lf 1013,6 hPa 0,0 l/m 0 min 0 min 0 W/m 18,8 km/h (3 Bft) 97,87 %
02.10.2017 02:16 14,2 C 13,9 C 12,8 C 83 % 0 lf 1013,6 hPa 0,0 l/m 0 min 0 min 0 W/m 16,7 km/h (3 Bft) 95,74 %
02.10.2017 02:18 14,2 C 13,9 C 12,8 C 83 % 0 lf 1013,7 hPa 0,0 l/m 0 min 0 min 0 W/m 14,6 km/h (3 Bft) 97,87 %
02.10.2017 02:20 14,2 C 13,9 C 12,8 C 83 % 0 lf 1013,6 hPa 0,0 l/m 0 min 0 min 0 W/m 16,7 km/h (3 Bft) 97,83 %
02.10.2017 02:22 14,2 C 13,9 C 12,8 C 83 % 0 lf 1013,5 hPa 0,0 l/m 0 min 0 min 0 W/m 14,6 km/h (3 Bft) 97,87 %
02.10.2017 02:24 14,2 C 13,9 C 12,8 C 83 % 0 lf 1013,5 hPa 0,0 l/m 0 min 0 min 0 W/m 16,7 km/h (3 Bft) 97,87 %
02.10.2017 02:26 14,2 C 13,9 C 12,8 C 83 % 0 lf 1013,4 hPa 0,0 l/m 0 min 0 min 0 W/m 18,8 km/h (3 Bft) 97,87 %
02.10.2017 02:28 14,2 C 13,9 C 12,8 C 83 % 0 lf 1013,4 hPa 0,0 l/m 0 min 0 min 0 W/m 18,8 km/h (3 Bft) 95,74 %
02.10.2017 02:30 14,2 C 13,9 C 12,8 C 83 % 0 lf 1013,3 hPa 0,0 l/m 0 min 0 min 0 W/m 14,6 km/h (3 Bft) 95,74 %
02.10.2017 02:32 14,2 C 13,9 C 12,8 C 84 % 0 lf 1013,2 hPa 0,0 l/m 0 min 0 min 0 W/m 18,8 km/h (3 Bft) 100,00 %
02.10.2017 02:34 14,2 C 13,9 C 12,8 C 84 % 0 lf 1013,1 hPa 0,0 l/m 0 min 0 min 0 W/m 12,6 km/h (3 Bft) 97,83 %
02.10.2017 02:36 14,2 C 13,9 C 12,8 C 84 % 0 lf 1013,2 hPa 0,0 l/m 0 min 0 min 0 W/m 12,6 km/h (3 Bft) 100,00 %
02.10.2017 02:38 14,2 C 13,9 C 12,8 C 84 % 0 lf 1013,3 hPa 0,0 l/m 0 min 0 min 0 W/m 10,5 km/h (2 Bft) 97,87 %
02.10.2017 02:40 14,2 C 13,9 C 12,8 C 84 % 0 lf 1013,2 hPa 0,0 l/m 0 min 0 min 0 W/m 16,7 km/h (3 Bft) 97,87 %
02.10.2017 02:42 14,2 C 13,9 C 12,8 C 84 % 0 lf 1013,2 hPa 0,0 l/m 0 min 0 min 0 W/m 14,6 km/h (3 Bft) 100,00 %
02.10.2017 02:44 14,2 C 13,9 C 12,8 C 84 % 0 lf 1013,1 hPa 0,0 l/m 0 min 0 min 0 W/m 16,7 km/h (3 Bft) 100,00 %
02.10.2017 02:46 14,2 C 13,9 C 12,8 C 84 % 0 lf 1013,1 hPa 0,0 l/m 0 min 0 min 0 W/m 14,6 km/h (3 Bft) 97,87 %
02.10.2017 02:48 14,2 C 13,9 C 12,8 C 84 % 0 lf 1013,0 hPa 0,0 l/m 0 min 0 min 0 W/m 16,7 km/h (3 Bft) 97,87 %
02.10.2017 02:50 14,2 C 13,9 C 12,8 C 84 % 0 lf 1013,0 hPa 0,0 l/m 0 min 0 min 0 W/m 14,6 km/h (3 Bft) 97,87 %
02.10.2017 02:52 14,2 C 13,9 C 12,8 C 84 % 0 lf 1013,0 hPa 0,0 l/m 0 min 0 min 0 W/m 14,6 km/h (3 Bft) 100,00 %
02.10.2017 02:54 14,2 C 13,9 C 12,8 C 84 % 0 lf 1013,2 hPa 0,0 l/m 0 min 0 min 0 W/m 14,6 km/h (3 Bft) 97,87 %
02.10.2017 02:56 14,2 C 13,9 C 12,8 C 84 % 0 lf 1013,2 hPa 0,0 l/m 0 min 0 min 0 W/m 10,5 km/h (2 Bft) 95,65 %
02.10.2017 02:58 14,2 C 13,9 C 12,8 C 84 % 0 lf 1013,2 hPa 0,0 l/m 0 min 0 min 0 W/m 14,6 km/h (3 Bft) 97,87 %
02.10.2017 03:00 14,2 C 13,9 C 12,8 C 84 % 0 lf 1013,2 hPa 0,0 l/m 0 min 0 min 0 W/m 12,6 km/h (3 Bft) 93,62 %
02.10.2017 03:02 14,2 C 13,9 C 12,8 C 84 % 0 lf 1013,2 hPa 0,0 l/m 0 min 0 min 0 W/m 10,5 km/h (2 Bft) 95,74 %
02.10.2017 03:04 14,2 C 13,9 C 12,8 C 84 % 0 lf 1013,2 hPa 0,0 l/m 0 min 0 min 0 W/m 14,6 km/h (3 Bft) 93,62 %
02.10.2017 03:06 14,2 C 13,9 C 12,8 C 84 % 0 lf 1013,3 hPa 0,0 l/m 0 min 0 min 0 W/m 10,5 km/h (2 Bft) 97,87 %
02.10.2017 03:08 14,2 C 13,9 C 12,8 C 84 % 0 lf 1013,3 hPa 0,0 l/m 0 min 0 min 0 W/m 8,4 km/h (2 Bft) 97,83 %
02.10.2017 03:10 14,2 C 13,9 C 12,8 C 84 % 0 lf 1013,4 hPa 0,0 l/m 0 min 0 min 0 W/m 10,5 km/h (2 Bft) 97,87 %
02.10.2017 03:12 14,2 C 14,4 C 12,8 C 84 % 0 lf 1013,5 hPa 0,0 l/m 0 min 0 min 0 W/m 10,5 km/h (2 Bft) 97,87 %
02.10.2017 03:14 14,2 C 14,4 C 12,8 C 84 % 0 lf 1013,5 hPa 0,0 l/m 0 min 0 min 0 W/m 8,4 km/h (2 Bft) 97,87 %
02.10.2017 03:16 14,2 C 13,9 C 12,8 C 84 % 0 lf 1013,3 hPa 0,0 l/m 0 min 2 min 0 W/m 12,6 km/h (3 Bft) 95,74 %
02.10.2017 03:18 14,2 C 13,9 C 12,8 C 84 % 0 lf 1013,3 hPa 0,0 l/m 0 min 2 min 0 W/m 12,6 km/h (3 Bft) 89,36 %
02.10.2017 03:20 14,2 C 13,9 C 12,8 C 84 % 0 lf 1013,1 hPa 0,0 l/m 0 min 2 min 0 W/m 12,6 km/h (3 Bft) 93,48 %
02.10.2017 03:22 14,2 C 13,9 C 12,8 C 84 % 0 lf 1013,0 hPa 0,0 l/m 0 min 2 min 0 W/m 12,6 km/h (3 Bft) 95,74 %
02.10.2017 03:24 14,2 C 13,9 C 12,8 C 84 % 0 lf 1013,0 hPa 0,0 l/m 0 min 0 min 0 W/m 12,6 km/h (3 Bft) 93,62 %
02.10.2017 03:26 14,3 C 13,9 C 12,8 C 85 % 0 lf 1013,0 hPa 0,0 l/m 0 min 0 min 0 W/m 8,4 km/h (2 Bft) 93,62 %
02.10.2017 03:28 14,3 C 13,9 C 12,8 C 85 % 0 lf 1013,0 hPa 0,0 l/m 0 min 0 min 0 W/m 12,6 km/h (3 Bft) 93,62 %
02.10.2017 03:30 14,2 C 13,9 C 12,8 C 85 % 0 lf 1013,0 hPa 0,0 l/m 0 min 0 min 0 W/m 14,6 km/h (3 Bft) 91,49 %
02.10.2017 03:32 14,2 C 13,9 C 12,8 C 85 % 0 lf 1013,0 hPa 0,0 l/m 0 min 0 min 0 W/m 16,7 km/h (3 Bft) 93,48 %
02.10.2017 03:34 14,2 C 13,9 C 12,8 C 85 % 0 lf 1013,0 hPa 0,0 l/m 0 min 0 min 0 W/m 8,4 km/h (2 Bft) 93,62 %
02.10.2017 03:36 14,2 C 13,9 C 12,8 C 85 % 0 lf 1013,0 hPa 0,0 l/m 0 min 2 min 0 W/m 10,5 km/h (2 Bft) 89,36 %
02.10.2017 03:38 14,2 C 13,9 C 12,8 C 85 % 0 lf 1013,0 hPa 0,0 l/m 0 min 2 min 0 W/m 8,4 km/h (2 Bft) 93,62 %
02.10.2017 03:40 14,3 C 13,3 C 12,2 C 85 % 3 lf 1013,0 hPa 0,0 l/m 0 min 2 min 0 W/m 12,6 km/h (3 Bft) 89,36 %
02.10.2017 03:42 14,3 C 13,3 C 12,2 C 85 % 8 lf 1013,0 hPa 0,0 l/m 0 min 2 min 0 W/m 12,6 km/h (3 Bft) 93,62 %
02.10.2017 03:44 14,3 C 12,8 C 11,7 C 85 % 7 lf 1013,0 hPa 0,0 l/m 0 min 2 min 0 W/m 12,6 km/h (3 Bft) 95,65 %
02.10.2017 03:46 14,3 C 12,8 C 11,7 C 86 % 4 lf 1013,0 hPa 0,0 l/m 0 min 2 min 0 W/m 8,4 km/h (2 Bft) 95,74 %
02.10.2017 03:48 14,3 C 12,8 C 11,7 C 86 % 3 lf 1013,0 hPa 0,0 l/m 0 min 0 min 0 W/m 8,4 km/h (2 Bft) 93,62 %
02.10.2017 03:50 14,3 C 12,8 C 11,7 C 86 % 1 lf 1013,0 hPa 0,0 l/m 0 min 0 min 0 W/m 8,4 km/h (2 Bft) 95,74 %
02.10.2017 03:52 14,3 C 12,8 C 11,7 C 86 % 0 lf 1013,1 hPa 0,0 l/m 0 min 0 min 0 W/m 8,4 km/h (2 Bft) 95,74 %
02.10.2017 03:54 14,3 C 12,8 C 11,7 C 86 % 0 lf 1013,1 hPa 0,0 l/m 0 min 0 min 0 W/m 10,5 km/h (2 Bft) 91,30 %
02.10.2017 03:56 14,3 C 12,8 C 11,7 C 87 % 0 lf 1013,0 hPa 0,0 l/m 0 min 0 min 0 W/m 10,5 km/h (2 Bft) 95,74 %
02.10.2017 03:58 14,3 C 12,8 C 11,7 C 87 % 0 lf 1012,9 hPa 0,0 l/m 0 min 0 min 0 W/m 6,3 km/h (2 Bft) 93,62 %
02.10.2017 04:00 14,2 C 13,3 C 11,7 C 87 % 0 lf 1013,0 hPa 0,0 l/m 0 min 0 min 0 W/m 8,4 km/h (2 Bft) 91,49 %
02.10.2017 04:02 14,2 C 13,3 C 11,7 C 87 % 0 lf 1012,9 hPa 0,0 l/m 0 min 0 min 0 W/m 12,6 km/h (3 Bft) 100,00 %
02.10.2017 04:04 14,2 C 13,3 C 11,7 C 87 % 0 lf 1012,9 hPa 0,0 l/m 0 min 0 min 0 W/m 10,5 km/h (2 Bft) 97,87 %
02.10.2017 04:06 14,2 C 13,3 C 11,7 C 87 % 0 lf 1012,9 hPa 0,0 l/m 0 min 0 min 0 W/m 8,4 km/h (2 Bft) 93,48 %
02.10.2017 04:08 14,2 C 13,3 C 11,7 C 87 % 0 lf 1012,9 hPa 0,0 l/m 0 min 2 min 0 W/m 10,5 km/h (2 Bft) 95,74 %
02.10.2017 04:10 14,2 C 13,3 C 11,7 C 88 % 0 lf 1012,8 hPa 0,0 l/m 0 min 0 min 0 W/m 10,5 km/h (2 Bft) 91,49 %
02.10.2017 04:12 14,2 C 13,3 C 11,7 C 88 % 0 lf 1012,7 hPa 0,0 l/m 0 min 0 min 0 W/m 12,6 km/h (3 Bft) 93,62 %
02.10.2017 04:14 14,2 C 13,3 C 11,7 C 88 % 0 lf 1012,6 hPa 0,0 l/m 0 min 2 min 0 W/m 16,7 km/h (3 Bft) 93,62 %
02.10.2017 04:16 14,2 C 13,9 C 12,2 C 88 % 0 lf 1012,6 hPa 0,0 l/m 0 min 0 min 0 W/m 16,7 km/h (3 Bft) 89,36 %
02.10.2017 04:18 14,2 C 13,9 C 12,2 C 88 % 0 lf 1012,5 hPa 0,0 l/m 0 min 0 min 0 W/m 14,6 km/h (3 Bft) 93,48 %
02.10.2017 04:20 14,2 C 13,9 C 12,2 C 88 % 0 lf 1012,5 hPa 0,0 l/m 0 min 0 min 0 W/m 16,7 km/h (3 Bft) 95,74 %
02.10.2017 04:22 14,2 C 13,9 C 12,2 C 88 % 0 lf 1012,5 hPa 0,0 l/m 0 min 0 min 0 W/m 18,8 km/h (3 Bft) 97,87 %
02.10.2017 04:24 14,2 C 13,9 C 12,2 C 88 % 0 lf 1012,5 hPa 0,0 l/m 0 min 0 min 0 W/m 18,8 km/h (3 Bft) 95,74 %
02.10.2017 04:26 14,2 C 13,9 C 12,2 C 88 % 0 lf 1012,3 hPa 0,0 l/m 0 min 0 min 0 W/m 18,8 km/h (3 Bft) 100,00 %
02.10.2017 04:28 14,2 C 13,9 C 12,2 C 88 % 0 lf 1012,3 hPa 0,0 l/m 0 min 0 min 0 W/m 14,6 km/h (3 Bft) 97,87 %
02.10.2017 04:30 14,2 C 13,9 C 12,2 C 89 % 0 lf 1012,3 hPa 0,0 l/m 0 min 0 min 0 W/m 18,8 km/h (3 Bft) 95,65 %
02.10.2017 04:32 14,2 C 13,9 C 12,2 C 89 % 0 lf 1012,2 hPa 0,0 l/m 0 min 0 min 0 W/m 18,8 km/h (3 Bft) 100,00 %
02.10.2017 04:34 14,2 C 13,9 C 12,2 C 89 % 0 lf 1012,2 hPa 0,0 l/m 0 min 0 min 0 W/m 14,6 km/h (3 Bft) 97,87 %
02.10.2017 04:36 14,2 C 13,9 C 12,2 C 89 % 0 lf 1012,2 hPa 0,0 l/m 0 min 0 min 0 W/m 18,8 km/h (3 Bft) 97,87 %
02.10.2017 04:38 14,2 C 13,9 C 12,2 C 89 % 0 lf 1012,2 hPa 0,0 l/m 0 min 0 min 0 W/m 16,7 km/h (3 Bft) 100,00 %
02.10.2017 04:40 14,2 C 13,9 C 12,8 C 89 % 0 lf 1012,2 hPa 0,0 l/m 0 min 0 min 0 W/m 18,8 km/h (3 Bft) 97,87 %
02.10.2017 04:42 14,2 C 13,9 C 12,8 C 89 % 0 lf 1012,2 hPa 0,0 l/m 0 min 0 min 0 W/m 20,9 km/h (4 Bft) 97,83 %
02.10.2017 04:44 14,2 C 14,4 C 12,8 C 89 % 0 lf 1012,2 hPa 0,0 l/m 0 min 0 min 0 W/m 18,8 km/h (3 Bft) 100,00 %
02.10.2017 04:46 14,2 C 14,4 C 12,8 C 89 % 2 lf 1012,2 hPa 0,0 l/m 0 min 0 min 0 W/m 25,1 km/h (4 Bft) 100,00 %
02.10.2017 04:48 14,2 C 14,4 C 12,8 C 89 % 2 lf 1012,2 hPa 0,0 l/m 0 min 2 min 0 W/m 18,8 km/h (3 Bft) 100,00 %
02.10.2017 04:50 14,2 C 14,4 C 12,8 C 89 % 4 lf 1012,3 hPa 0,0 l/m 0 min 2 min 0 W/m 18,8 km/h (3 Bft) 100,00 %
02.10.2017 04:52 14,2 C 13,9 C 12,2 C 89 % 3 lf 1012,3 hPa 0,0 l/m 0 min 2 min 0 W/m 16,7 km/h (3 Bft) 100,00 %
02.10.2017 04:54 14,3 C 13,9 C 12,2 C 89 % 7 lf 1012,3 hPa 0,0 l/m 0 min 2 min 0 W/m 12,6 km/h (3 Bft) 100,00 %
02.10.2017 04:56 14,3 C 13,3 C 12,2 C 89 % 13 lf 1012,3 hPa 0,2 l/m 0 min 2 min 0 W/m 14,6 km/h (3 Bft) 100,00 %
02.10.2017 04:58 14,3 C 13,3 C 12,2 C 89 % 14 lf 1012,3 hPa 0,0 l/m 0 min 2 min 0 W/m 16,7 km/h (3 Bft) 100,00 %
02.10.2017 05:00 14,4 C 12,8 C 12,2 C 90 % 15 lf 1012,3 hPa 0,0 l/m 0 min 2 min 0 W/m 14,6 km/h (3 Bft) 95,74 %
02.10.2017 05:02 14,4 C 12,8 C 12,2 C 90 % 15 lf 1012,3 hPa 0,0 l/m 0 min 2 min 0 W/m 16,7 km/h (3 Bft) 100,00 %
02.10.2017 05:04 14,4 C 12,8 C 12,2 C 90 % 15 lf 1012,2 hPa 0,2 l/m 0 min 2 min 0 W/m 10,5 km/h (2 Bft) 100,00 %
02.10.2017 05:06 14,4 C 12,8 C 12,2 C 90 % 15 lf 1012,2 hPa 0,0 l/m 0 min 2 min 0 W/m 18,8 km/h (3 Bft) 100,00 %
02.10.2017 05:08 14,4 C 12,8 C 12,2 C 90 % 15 lf 1012,2 hPa 0,0 l/m 0 min 2 min 0 W/m 14,6 km/h (3 Bft) 97,87 %
02.10.2017 05:10 14,4 C 12,8 C 12,2 C 90 % 15 lf 1012,2 hPa 0,2 l/m 0 min 2 min 0 W/m 12,6 km/h (3 Bft) 100,00 %
02.10.2017 05:12 14,4 C 12,8 C 12,2 C 91 % 15 lf 1012,2 hPa 0,0 l/m 0 min 2 min 0 W/m 14,6 km/h (3 Bft) 100,00 %
02.10.2017 05:14 14,4 C 12,8 C 12,2 C 91 % 15 lf 1012,1 hPa 0,0 l/m 0 min 2 min 0 W/m 16,7 km/h (3 Bft) 97,87 %
02.10.2017 05:16 14,4 C 12,8 C 12,2 C 91 % 15 lf 1012,1 hPa 0,0 l/m 0 min 2 min 0 W/m 18,8 km/h (3 Bft) 97,83 %
02.10.2017 05:18 14,4 C 12,8 C 12,2 C 91 % 15 lf 1012,0 hPa 0,0 l/m 0 min 2 min 0 W/m 14,6 km/h (3 Bft) 95,74 %
02.10.2017 05:20 14,4 C 13,3 C 12,2 C 91 % 15 lf 1012,0 hPa 0,0 l/m 0 min 2 min 0 W/m 14,6 km/h (3 Bft) 100,00 %
02.10.2017 05:22 14,4 C 13,3 C 12,2 C 91 % 15 lf 1012,0 hPa 0,0 l/m 0 min 0 min 0 W/m 16,7 km/h (3 Bft) 100,00 %
02.10.2017 05:24 14,4 C 13,3 C 12,2 C 92 % 15 lf 1012,0 hPa 0,0 l/m 0 min 0 min 0 W/m 14,6 km/h (3 Bft) 100,00 %
02.10.2017 05:26 14,4 C 13,3 C 12,2 C 92 % 15 lf 1011,9 hPa 0,0 l/m 0 min 0 min 0 W/m 18,8 km/h (3 Bft) 95,74 %
02.10.2017 05:28 14,5 C 13,3 C 12,2 C 92 % 15 lf 1012,0 hPa 0,0 l/m 0 min 0 min 0 W/m 14,6 km/h (3 Bft) 97,83 %
02.10.2017 05:30 14,5 C 13,3 C 12,2 C 92 % 15 lf 1012,1 hPa 0,0 l/m 0 min 0 min 0 W/m 16,7 km/h (3 Bft) 100,00 %
02.10.2017 05:32 14,5 C 13,3 C 12,2 C 92 % 15 lf 1012,0 hPa 0,0 l/m 0 min 0 min 0 W/m 14,6 km/h (3 Bft) 100,00 %
02.10.2017 05:34 14,5 C 13,3 C 12,2 C 92 % 15 lf 1012,0 hPa 0,0 l/m 0 min 0 min 0 W/m 14,6 km/h (3 Bft) 100,00 %
02.10.2017 05:35 14,5 C 13,3 C 12,8 C 92 % 15 lf 1012,0 hPa 0,0 l/m 0 min 0 min 0 W/m 14,6 km/h (3 Bft) 100,00 %
02.10.2017 05:40 14,5 C 13,3 C 12,8 C 92 % 15 lf 1012,0 hPa 0,0 l/m 0 min 0 min 0 W/m 12,6 km/h (3 Bft) 91,67 %
02.10.2017 05:42 14,5 C 13,3 C 12,8 C 92 % 15 lf 1012,0 hPa 0,0 l/m 0 min 0 min 0 W/m 20,9 km/h (4 Bft) 97,87 %
02.10.2017 05:44 14,6 C 13,9 C 12,8 C 93 % 14 lf 1011,9 hPa 0,0 l/m 0 min 0 min 0 W/m 27,2 km/h (4 Bft) 95,65 %
02.10.2017 05:46 14,6 C 13,9 C 12,8 C 93 % 13 lf 1011,9 hPa 0,0 l/m 0 min 0 min 0 W/m 18,8 km/h (3 Bft) 97,87 %
02.10.2017 05:48 14,6 C 13,9 C 12,8 C 93 % 12 lf 1011,9 hPa 0,0 l/m 0 min 0 min 0 W/m 14,6 km/h (3 Bft) 93,62 %
02.10.2017 05:50 14,6 C 13,9 C 12,8 C 93 % 11 lf 1011,8 hPa 0,0 l/m 0 min 0 min 0 W/m 14,6 km/h (3 Bft) 95,74 %
02.10.2017 05:52 14,6 C 13,9 C 12,8 C 93 % 10 lf 1011,8 hPa 0,0 l/m 0 min 0 min 0 W/m 16,7 km/h (3 Bft) 95,74 %
02.10.2017 05:54 14,6 C 13,9 C 12,8 C 93 % 9 lf 1011,8 hPa 0,0 l/m 0 min 0 min 0 W/m 18,8 km/h (3 Bft) 95,74 %
02.10.2017 05:56 14,6 C 13,9 C 12,8 C 93 % 7 lf 1011,7 hPa 0,0 l/m 0 min 0 min 0 W/m 18,8 km/h (3 Bft) 97,83 %
02.10.2017 05:58 14,6 C 13,9 C 12,8 C 93 % 5 lf 1011,8 hPa 0,0 l/m 0 min 0 min 0 W/m 18,8 km/h (3 Bft) 95,74 %
02.10.2017 06:00 14,6 C 13,9 C 12,8 C 93 % 4 lf 1011,7 hPa 0,0 l/m 0 min 0 min 0 W/m 27,2 km/h (4 Bft) 93,62 %
02.10.2017 06:02 14,7 C 13,9 C 12,8 C 94 % 3 lf 1011,8 hPa 0,0 l/m 0 min 0 min 0 W/m 27,2 km/h (4 Bft) 93,62 %
02.10.2017 06:04 14,7 C 13,9 C 12,8 C 94 % 1 lf 1011,8 hPa 0,0 l/m 0 min 0 min 0 W/m 18,8 km/h (3 Bft) 91,49 %
02.10.2017 06:06 14,7 C 13,9 C 12,8 C 94 % 1 lf 1011,8 hPa 0,0 l/m 0 min 0 min 0 W/m 16,7 km/h (3 Bft) 95,74 %
02.10.2017 06:10 14,7 C 13,9 C 12,8 C 94 % 0 lf 1011,8 hPa 0,0 l/m 0 min 0 min 0 W/m 31,4 km/h (5 Bft) 96,34 %
02.10.2017 06:12 14,7 C 13,9 C 12,8 C 94 % 0 lf 1011,6 hPa 0,0 l/m 0 min 0 min 0 W/m 23,0 km/h (4 Bft) 93,48 %
02.10.2017 06:14 14,7 C 13,9 C 12,8 C 94 % 0 lf 1011,6 hPa 0,0 l/m 0 min 0 min 0 W/m 20,9 km/h (4 Bft) 93,62 %
02.10.2017 06:16 14,7 C 13,9 C 12,8 C 94 % 0 lf 1011,4 hPa 0,0 l/m 0 min 0 min 0 W/m 29,3 km/h (5 Bft) 93,62 %
02.10.2017 06:18 14,7 C 13,9 C 12,8 C 94 % 0 lf 1011,4 hPa 0,0 l/m 0 min 0 min 0 W/m 14,6 km/h (3 Bft) 93,62 %
02.10.2017 06:20 14,7 C 13,9 C 12,8 C 94 % 0 lf 1011,4 hPa 0,0 l/m 0 min 0 min 0 W/m 23,0 km/h (4 Bft) 95,74 %
02.10.2017 06:22 14,7 C 13,9 C 12,8 C 94 % 0 lf 1011,5 hPa 0,0 l/m 0 min 0 min 0 W/m 14,6 km/h (3 Bft) 91,49 %
02.10.2017 06:24 14,7 C 13,9 C 12,8 C 94 % 0 lf 1011,5 hPa 0,0 l/m 0 min 0 min 0 W/m 18,8 km/h (3 Bft) 97,83 %
02.10.2017 06:26 14,7 C 13,9 C 12,8 C 94 % 0 lf 1011,5 hPa 0,0 l/m 0 min 0 min 0 W/m 14,6 km/h (3 Bft) 95,74 %
02.10.2017 06:28 14,7 C 13,9 C 12,8 C 94 % 0 lf 1011,5 hPa 0,0 l/m 0 min 0 min 0 W/m 16,7 km/h (3 Bft) 97,87 %
02.10.2017 06:30 14,7 C 13,9 C 12,8 C 94 % 0 lf 1011,4 hPa 0,0 l/m 0 min 0 min 0 W/m 31,4 km/h (5 Bft) 93,62 %
02.10.2017 06:32 14,7 C 13,9 C 12,8 C 94 % 0 lf 1011,3 hPa 0,0 l/m 0 min 0 min 0 W/m 18,8 km/h (3 Bft) 95,74 %
02.10.2017 06:34 14,8 C 13,9 C 12,8 C 94 % 0 lf 1011,3 hPa 0,0 l/m 0 min 0 min 0 W/m 16,7 km/h (3 Bft) 97,87 %
02.10.2017 06:36 14,8 C 13,9 C 12,8 C 94 % 0 lf 1011,2 hPa 0,0 l/m 0 min 0 min 0 W/m 25,1 km/h (4 Bft) 97,83 %
02.10.2017 06:38 14,8 C 13,9 C 12,8 C 94 % 0 lf 1011,2 hPa 0,0 l/m 0 min 0 min 0 W/m 14,6 km/h (3 Bft) 91,49 %
02.10.2017 06:40 14,8 C 13,9 C 12,8 C 94 % 0 lf 1011,2 hPa 0,0 l/m 0 min 0 min 0 W/m 29,3 km/h (5 Bft) 97,87 %
02.10.2017 06:42 14,8 C 14,4 C 12,8 C 94 % 0 lf 1011,3 hPa 0,0 l/m 0 min 0 min 0 W/m 23,0 km/h (4 Bft) 97,87 %
02.10.2017 06:44 14,8 C 13,9 C 12,8 C 94 % 0 lf 1011,1 hPa 0,0 l/m 0 min 0 min 0 W/m 16,7 km/h (3 Bft) 97,87 %
02.10.2017 06:46 14,8 C 14,4 C 12,8 C 94 % 0 lf 1011,1 hPa 0,0 l/m 0 min 0 min 0 W/m 16,7 km/h (3 Bft) 97,83 %
02.10.2017 06:48 14,8 C 14,4 C 13,3 C 94 % 0 lf 1011,2 hPa 0,0 l/m 0 min 0 min 0 W/m 31,4 km/h (5 Bft) 97,87 %
02.10.2017 06:50 14,9 C 14,4 C 13,3 C 94 % 0 lf 1011,3 hPa 0,0 l/m 0 min 0 min 0 W/m 16,7 km/h (3 Bft) 97,87 %
02.10.2017 06:52 14,9 C 14,4 C 13,3 C 94 % 0 lf 1011,3 hPa 0,0 l/m 0 min 0 min 0 W/m 18,8 km/h (3 Bft) 95,74 %
02.10.2017 06:54 14,9 C 14,4 C 13,3 C 94 % 0 lf 1011,3 hPa 0,0 l/m 0 min 0 min 0 W/m 23,0 km/h (4 Bft) 95,74 %
02.10.2017 06:56 14,9 C 14,4 C 13,3 C 94 % 0 lf 1011,4 hPa 0,0 l/m 0 min 0 min 0 W/m 14,6 km/h (3 Bft) 95,74 %
02.10.2017 06:58 14,9 C 14,4 C 13,3 C 94 % 0 lf 1011,3 hPa 0,0 l/m 0 min 0 min 0 W/m 23,0 km/h (4 Bft) 97,83 %
02.10.2017 07:00 14,9 C 14,4 C 13,3 C 94 % 0 lf 1011,3 hPa 0,0 l/m 0 min 0 min 0 W/m 23,0 km/h (4 Bft) 97,87 %
02.10.2017 07:02 14,9 C 14,4 C 13,3 C 94 % 0 lf 1011,3 hPa 0,0 l/m 0 min 0 min 0 W/m 12,6 km/h (3 Bft) 95,74 %
02.10.2017 07:04 14,9 C 14,4 C 13,3 C 94 % 0 lf 1011,3 hPa 0,0 l/m 0 min 0 min 0 W/m 16,7 km/h (3 Bft) 97,87 %
02.10.2017 07:06 15,0 C 14,4 C 13,3 C 94 % 1 lf 1011,3 hPa 0,0 l/m 0 min 0 min 0 W/m 23,0 km/h (4 Bft) 93,62 %
02.10.2017 07:08 15,0 C 14,4 C 13,3 C 94 % 7 lf 1011,3 hPa 0,0 l/m 0 min 2 min 0 W/m 14,6 km/h (3 Bft) 97,87 %
02.10.2017 07:10 15,0 C 14,4 C 12,8 C 94 % 8 lf 1011,4 hPa 0,0 l/m 0 min 2 min 0 W/m 18,8 km/h (3 Bft) 95,65 %
02.10.2017 07:12 15,0 C 14,4 C 12,8 C 94 % 7 lf 1011,4 hPa 0,0 l/m 0 min 2 min 0 W/m 18,8 km/h (3 Bft) 91,49 %
02.10.2017 07:14 15,1 C 14,4 C 12,8 C 94 % 5 lf 1011,4 hPa 0,0 l/m 0 min 0 min 0 W/m 16,7 km/h (3 Bft) 97,87 %
02.10.2017 07:16 15,1 C 14,4 C 12,8 C 94 % 4 lf 1011,5 hPa 0,0 l/m 0 min 0 min 0 W/m 14,6 km/h (3 Bft) 97,87 %
02.10.2017 07:18 15,1 C 14,4 C 12,8 C 94 % 4 lf 1011,4 hPa 0,0 l/m 0 min 0 min 0 W/m 18,8 km/h (3 Bft) 97,87 %
02.10.2017 07:20 15,1 C 14,4 C 13,3 C 94 % 3 lf 1011,4 hPa 0,0 l/m 0 min 0 min 0 W/m 14,6 km/h (3 Bft) 96,55 %
02.10.2017 07:22 15,1 C 14,4 C 13,3 C 94 % 3 lf 1011,4 hPa 0,0 l/m 0 min 0 min 0 W/m 10,5 km/h (2 Bft) 100,00 %
02.10.2017 07:24 15,1 C 14,4 C 13,3 C 94 % 2 lf 1011,5 hPa 0,0 l/m 0 min 0 min 0 W/m 16,7 km/h (3 Bft) 97,87 %
02.10.2017 07:26 15,1 C 14,4 C 13,3 C 94 % 1 lf 1011,5 hPa 0,0 l/m 0 min 0 min 0 W/m 14,6 km/h (3 Bft) 97,87 %
02.10.2017 07:28 15,1 C 14,4 C 13,3 C 94 % 0 lf 1011,5 hPa 0,0 l/m 0 min 0 min 0 W/m 14,6 km/h (3 Bft) 95,74 %
02.10.2017 07:30 15,1 C 14,4 C 13,3 C 94 % 0 lf 1011,4 hPa 0,0 l/m 0 min 0 min 0 W/m 12,6 km/h (3 Bft) 95,74 %
02.10.2017 07:32 15,1 C 14,4 C 13,3 C 94 % 0 lf 1011,3 hPa 0,0 l/m 0 min 0 min 0 W/m 16,7 km/h (3 Bft) 89,36 %
02.10.2017 07:34 15,1 C 14,4 C 13,3 C 94 % 0 lf 1011,4 hPa 0,0 l/m 0 min 0 min 0 W/m 14,6 km/h (3 Bft) 95,65 %
02.10.2017 07:36 15,1 C 14,4 C 13,3 C 94 % 0 lf 1011,4 hPa 0,0 l/m 0 min 0 min 0 W/m 16,7 km/h (3 Bft) 93,62 %
02.10.2017 07:38 15,1 C 14,4 C 13,3 C 94 % 0 lf 1011,4 hPa 0,0 l/m 0 min 0 min 0 W/m 18,8 km/h (3 Bft) 95,74 %
02.10.2017 07:40 15,1 C 14,4 C 13,3 C 94 % 0 lf 1011,4 hPa 0,0 l/m 0 min 0 min 0 W/m 16,7 km/h (3 Bft) 95,74 %
02.10.2017 07:42 15,1 C 14,4 C 13,3 C 94 % 0 lf 1011,4 hPa 0,0 l/m 0 min 0 min 0 W/m 29,3 km/h (5 Bft) 97,87 %
02.10.2017 07:44 15,2 C 14,4 C 13,3 C 94 % 0 lf 1011,4 hPa 0,0 l/m 0 min 0 min 0 W/m 14,6 km/h (3 Bft) 95,74 %
02.10.2017 07:46 15,2 C 14,4 C 13,3 C 94 % 0 lf 1011,3 hPa 0,0 l/m 0 min 0 min 0 W/m 16,7 km/h (3 Bft) 95,65 %
02.10.2017 07:48 15,2 C 14,4 C 13,3 C 94 % 0 lf 1011,3 hPa 0,0 l/m 0 min 0 min 0 W/m 27,2 km/h (4 Bft) 95,74 %
02.10.2017 07:50 15,2 C 14,4 C 13,3 C 94 % 0 lf 1011,4 hPa 0,0 l/m 0 min 0 min 0 W/m 27,2 km/h (4 Bft) 94,92 %
02.10.2017 07:52 15,2 C 14,4 C 13,3 C 94 % 0 lf 1011,4 hPa 0,0 l/m 0 min 0 min 0 W/m 16,7 km/h (3 Bft) 91,43 %
02.10.2017 07:54 15,2 C 14,4 C 13,3 C 94 % 0 lf 1011,4 hPa 0,0 l/m 0 min 0 min 0 W/m 23,0 km/h (4 Bft) 95,74 %
02.10.2017 07:56 15,2 C 14,4 C 13,3 C 94 % 0 lf 1011,6 hPa 0,0 l/m 0 min 0 min 0 W/m 20,9 km/h (4 Bft) 97,83 %
02.10.2017 07:58 15,3 C 14,4 C 13,3 C 94 % 0 lf 1011,5 hPa 0,0 l/m 0 min 0 min 0 W/m 18,8 km/h (3 Bft) 95,74 %
02.10.2017 08:00 15,3 C 14,4 C 13,3 C 94 % 0 lf 1011,5 hPa 0,0 l/m 0 min 0 min 0 W/m 14,6 km/h (3 Bft) 95,74 %
02.10.2017 08:02 15,3 C 14,4 C 13,3 C 94 % 0 lf 1011,4 hPa 0,0 l/m 0 min 0 min 2 W/m 14,6 km/h (3 Bft) 95,74 %
02.10.2017 08:04 15,3 C 14,4 C 13,3 C 94 % 0 lf 1011,5 hPa 0,0 l/m 0 min 0 min 5 W/m 23,0 km/h (4 Bft) 95,74 %
02.10.2017 08:06 15,3 C 14,4 C 13,3 C 94 % 0 lf 1011,4 hPa 0,0 l/m 0 min 0 min 5 W/m 12,6 km/h (3 Bft) 93,62 %
02.10.2017 08:08 15,3 C 14,4 C 13,3 C 94 % 1 lf 1011,5 hPa 0,0 l/m 0 min 0 min 5 W/m 14,6 km/h (3 Bft) 95,65 %
02.10.2017 08:10 15,3 C 14,4 C 13,3 C 94 % 0 lf 1011,5 hPa 0,0 l/m 0 min 0 min 5 W/m 14,6 km/h (3 Bft) 97,87 %
02.10.2017 08:12 15,3 C 14,4 C 13,3 C 94 % 0 lf 1011,5 hPa 0,0 l/m 0 min 0 min 5 W/m 14,6 km/h (3 Bft) 93,62 %
02.10.2017 08:14 15,4 C 14,4 C 13,3 C 94 % 0 lf 1011,5 hPa 0,0 l/m 0 min 0 min 6 W/m 18,8 km/h (3 Bft) 95,74 %
02.10.2017 08:16 15,4 C 14,4 C 13,3 C 94 % 0 lf 1011,5 hPa 0,0 l/m 0 min 0 min 8 W/m 20,9 km/h (4 Bft) 97,87 %
02.10.2017 08:18 15,4 C 15,0 C 13,3 C 94 % 0 lf 1011,4 hPa 0,0 l/m 0 min 0 min 8 W/m 20,9 km/h (4 Bft) 100,00 %
02.10.2017 08:20 15,4 C 15,0 C 13,3 C 94 % 0 lf 1011,4 hPa 0,0 l/m 0 min 0 min 9 W/m 23,0 km/h (4 Bft) 94,83 %
02.10.2017 08:22 15,4 C 15,0 C 13,3 C 94 % 0 lf 1011,3 hPa 0,0 l/m 0 min 0 min 11 W/m 12,6 km/h (3 Bft) 95,12 %
02.10.2017 08:24 15,4 C 15,0 C 13,3 C 94 % 0 lf 1011,3 hPa 0,0 l/m 0 min 0 min 13 W/m 23,0 km/h (4 Bft) 95,74 %
02.10.2017 08:26 15,4 C 15,0 C 13,3 C 94 % 0 lf 1011,3 hPa 0,0 l/m 0 min 0 min 14 W/m 27,2 km/h (4 Bft) 97,87 %
02.10.2017 08:28 15,4 C 15,6 C 13,3 C 94 % 0 lf 1011,4 hPa 0,0 l/m 0 min 0 min 15 W/m 27,2 km/h (4 Bft) 97,87 %
02.10.2017 08:30 15,4 C 15,6 C 13,9 C 94 % 0 lf 1011,4 hPa 0,0 l/m 0 min 0 min 19 W/m 27,2 km/h (4 Bft) 97,87 %
02.10.2017 08:32 15,4 C 15,6 C 13,9 C 94 % 0 lf 1011,3 hPa 0,0 l/m 0 min 0 min 21 W/m 25,1 km/h (4 Bft) 95,65 %
02.10.2017 08:34 15,5 C 15,6 C 13,9 C 94 % 0 lf 1011,3 hPa 0,0 l/m 0 min 0 min 22 W/m 27,2 km/h (4 Bft) 95,74 %
02.10.2017 08:36 15,5 C 15,6 C 13,9 C 94 % 0 lf 1011,3 hPa 0,0 l/m 0 min 0 min 24 W/m 18,8 km/h (3 Bft) 97,87 %
02.10.2017 08:38 15,5 C 15,6 C 13,9 C 94 % 0 lf 1011,4 hPa 0,0 l/m 0 min 0 min 24 W/m 23,0 km/h (4 Bft) 97,87 %
02.10.2017 08:40 15,5 C 15,6 C 13,9 C 94 % 0 lf 1011,5 hPa 0,0 l/m 0 min 0 min 26 W/m 14,6 km/h (3 Bft) 97,87 %
02.10.2017 08:42 15,6 C 15,6 C 13,9 C 94 % 0 lf 1011,5 hPa 0,0 l/m 0 min 0 min 28 W/m 31,4 km/h (5 Bft) 97,87 %
02.10.2017 08:44 15,6 C 15,6 C 13,9 C 93 % 0 lf 1011,6 hPa 0,0 l/m 0 min 0 min 26 W/m 23,0 km/h (4 Bft) 97,83 %
02.10.2017 08:46 15,6 C 15,6 C 13,9 C 93 % 0 lf 1011,5 hPa 0,0 l/m 0 min 0 min 23 W/m 27,2 km/h (4 Bft) 97,87 %
02.10.2017 08:48 15,6 C 15,6 C 13,9 C 93 % 0 lf 1011,4 hPa 0,0 l/m 0 min 0 min 25 W/m 16,7 km/h (3 Bft) 97,87 %
02.10.2017 08:50 15,7 C 15,6 C 13,9 C 93 % 0 lf 1011,4 hPa 0,0 l/m 0 min 0 min 30 W/m 23,0 km/h (4 Bft) 95,74 %
02.10.2017 08:52 15,7 C 15,6 C 13,9 C 93 % 0 lf 1011,3 hPa 0,0 l/m 0 min 0 min 31 W/m 23,0 km/h (4 Bft) 94,00 %
02.10.2017 08:54 15,7 C 15,6 C 13,9 C 93 % 0 lf 1011,2 hPa 0,0 l/m 0 min 0 min 27 W/m 23,0 km/h (4 Bft) 97,87 %
02.10.2017 08:56 15,7 C 15,6 C 13,9 C 93 % 2 lf 1011,2 hPa 0,0 l/m 0 min 0 min 23 W/m 20,9 km/h (4 Bft) 97,83 %
02.10.2017 08:58 15,7 C 15,6 C 13,9 C 93 % 1 lf 1011,3 hPa 0,0 l/m 0 min 0 min 26 W/m 31,4 km/h (5 Bft) 97,87 %
02.10.2017 09:00 15,7 C 15,6 C 13,9 C 93 % 0 lf 1011,3 hPa 0,0 l/m 0 min 0 min 29 W/m 33,5 km/h (5 Bft) 97,87 %
02.10.2017 09:02 15,7 C 15,6 C 13,9 C 93 % 0 lf 1011,3 hPa 0,0 l/m 0 min 0 min 31 W/m 18,8 km/h (3 Bft) 97,87 %
02.10.2017 09:04 15,8 C 15,6 C 13,9 C 93 % 0 lf 1011,3 hPa 0,0 l/m 0 min 0 min 35 W/m 20,9 km/h (4 Bft) 97,87 %
02.10.2017 09:06 15,8 C 16,1 C 13,9 C 93 % 0 lf 1011,3 hPa 0,0 l/m 0 min 0 min 42 W/m 29,3 km/h (5 Bft) 97,83 %
02.10.2017 09:08 15,8 C 16,1 C 13,9 C 93 % 0 lf 1011,4 hPa 0,0 l/m 0 min 0 min 47 W/m 23,0 km/h (4 Bft) 97,87 %
02.10.2017 09:10 15,8 C 16,1 C 13,9 C 93 % 0 lf 1011,3 hPa 0,0 l/m 0 min 0 min 53 W/m 23,0 km/h (4 Bft) 95,74 %
02.10.2017 09:12 15,8 C 16,1 C 13,9 C 93 % 0 lf 1011,2 hPa 0,0 l/m 0 min 0 min 57 W/m 23,0 km/h (4 Bft) 91,49 %
02.10.2017 09:14 15,8 C 16,1 C 13,9 C 93 % 0 lf 1011,2 hPa 0,0 l/m 0 min 0 min 49 W/m 23,0 km/h (4 Bft) 95,74 %
02.10.2017 09:16 15,9 C 16,1 C 13,9 C 93 % 0 lf 1011,2 hPa 0,0 l/m 0 min 0 min 40 W/m 16,7 km/h (3 Bft) 95,74 %
02.10.2017 09:18 15,9 C 16,1 C 13,9 C 92 % 1 lf 1011,3 hPa 0,0 l/m 0 min 2 min 32 W/m 23,0 km/h (4 Bft) 97,83 %
02.10.2017 09:20 15,9 C 15,6 C 13,9 C 92 % 4 lf 1011,3 hPa 0,0 l/m 0 min 2 min 29 W/m 27,2 km/h (4 Bft) 97,87 %
02.10.2017 09:22 15,9 C 15,6 C 13,9 C 92 % 3 lf 1011,3 hPa 0,0 l/m 0 min 2 min 25 W/m 20,9 km/h (4 Bft) 97,87 %
02.10.2017 09:24 15,9 C 15,6 C 13,9 C 92 % 3 lf 1011,3 hPa 0,0 l/m 0 min 2 min 25 W/m 20,9 km/h (4 Bft) 97,87 %
02.10.2017 09:26 15,9 C 15,6 C 13,9 C 92 % 2 lf 1011,3 hPa 0,0 l/m 0 min 2 min 24 W/m 14,6 km/h (3 Bft) 97,87 %
02.10.2017 09:28 15,9 C 15,6 C 13,9 C 92 % 0 lf 1011,3 hPa 0,0 l/m 0 min 2 min 24 W/m 33,5 km/h (5 Bft) 95,74 %
02.10.2017 09:30 15,9 C 15,6 C 13,9 C 92 % 4 lf 1011,3 hPa 0,0 l/m 0 min 2 min 24 W/m 25,1 km/h (4 Bft) 95,65 %
02.10.2017 09:32 15,9 C 15,6 C 13,9 C 92 % 7 lf 1011,2 hPa 0,0 l/m 0 min 2 min 24 W/m 14,6 km/h (3 Bft) 97,87 %
02.10.2017 09:34 15,9 C 15,0 C 13,9 C 92 % 13 lf 1011,3 hPa 0,0 l/m 0 min 2 min 27 W/m 16,7 km/h (3 Bft) 97,87 %
02.10.2017 09:36 15,9 C 15,0 C 13,9 C 92 % 15 lf 1011,2 hPa 0,0 l/m 0 min 2 min 24 W/m 23,0 km/h (4 Bft) 97,87 %
02.10.2017 09:38 15,9 C 14,4 C 13,9 C 92 % 15 lf 1011,3 hPa 0,0 l/m 0 min 2 min 22 W/m 12,6 km/h (3 Bft) 97,87 %
02.10.2017 09:40 15,9 C 14,4 C 13,9 C 93 % 15 lf 1011,3 hPa 0,2 l/m 0 min 2 min 19 W/m 18,8 km/h (3 Bft) 93,62 %
02.10.2017 09:42 15,9 C 14,4 C 13,9 C 93 % 15 lf 1011,4 hPa 0,0 l/m 0 min 2 min 17 W/m 16,7 km/h (3 Bft) 95,65 %
02.10.2017 09:44 15,9 C 14,4 C 13,9 C 93 % 15 lf 1011,3 hPa 0,0 l/m 0 min 2 min 16 W/m 18,8 km/h (3 Bft) 95,74 %
02.10.2017 09:46 15,9 C 14,4 C 13,9 C 93 % 15 lf 1011,4 hPa 0,0 l/m 0 min 2 min 14 W/m 14,6 km/h (3 Bft) 91,49 %
02.10.2017 09:48 15,9 C 14,4 C 13,9 C 93 % 15 lf 1011,4 hPa 0,0 l/m 0 min 2 min 12 W/m 23,0 km/h (4 Bft) 93,62 %
02.10.2017 09:50 15,9 C 14,4 C 13,9 C 93 % 15 lf 1011,5 hPa 0,2 l/m 0 min 2 min 13 W/m 14,6 km/h (3 Bft) 95,74 %
02.10.2017 09:52 15,9 C 14,4 C 13,9 C 93 % 15 lf 1011,5 hPa 0,0 l/m 0 min 2 min 13 W/m 12,6 km/h (3 Bft) 95,74 %
02.10.2017 09:54 15,9 C 14,4 C 13,9 C 93 % 15 lf 1011,5 hPa 0,0 l/m 0 min 2 min 17 W/m 16,7 km/h (3 Bft) 95,65 %
02.10.2017 09:56 15,9 C 14,4 C 13,9 C 93 % 15 lf 1011,5 hPa 0,0 l/m 0 min 2 min 33 W/m 18,8 km/h (3 Bft) 95,74 %
02.10.2017 09:58 15,9 C 14,4 C 13,9 C 93 % 15 lf 1011,4 hPa 0,0 l/m 0 min 2 min 54 W/m 18,8 km/h (3 Bft) 97,87 %
02.10.2017 10:00 15,9 C 15,0 C 13,9 C 94 % 15 lf 1011,5 hPa 0,0 l/m 0 min 2 min 64 W/m 14,6 km/h (3 Bft) 93,62 %
02.10.2017 10:02 15,8 C 15,0 C 13,9 C 94 % 15 lf 1011,5 hPa 0,0 l/m 0 min 2 min 78 W/m 20,9 km/h (4 Bft) 91,49 %
02.10.2017 10:04 15,8 C 15,0 C 13,9 C 94 % 15 lf 1011,6 hPa 0,0 l/m 0 min 2 min 84 W/m 14,6 km/h (3 Bft) 95,74 %
02.10.2017 10:06 15,8 C 15,0 C 13,9 C 94 % 15 lf 1011,5 hPa 0,2 l/m 0 min 0 min 84 W/m 12,6 km/h (3 Bft) 93,48 %
02.10.2017 10:08 15,9 C 15,0 C 13,9 C 94 % 15 lf 1011,5 hPa 0,0 l/m 0 min 2 min 74 W/m 14,6 km/h (3 Bft) 97,87 %
02.10.2017 10:10 15,9 C 15,0 C 13,9 C 94 % 15 lf 1011,6 hPa 0,0 l/m 0 min 0 min 59 W/m 25,1 km/h (4 Bft) 97,87 %
02.10.2017 10:12 15,9 C 15,0 C 13,9 C 94 % 15 lf 1011,6 hPa 0,0 l/m 0 min 2 min 42 W/m 29,3 km/h (5 Bft) 97,87 %
02.10.2017 10:14 15,8 C 15,0 C 13,9 C 94 % 15 lf 1011,6 hPa 0,0 l/m 0 min 2 min 50 W/m 12,6 km/h (3 Bft) 95,74 %
02.10.2017 10:16 15,8 C 15,0 C 13,9 C 94 % 15 lf 1011,6 hPa 0,0 l/m 0 min 2 min 58 W/m 25,1 km/h (4 Bft) 100,00 %
02.10.2017 10:18 15,8 C 15,0 C 13,9 C 94 % 15 lf 1011,6 hPa 0,0 l/m 0 min 2 min 67 W/m 20,9 km/h (4 Bft) 97,87 %
02.10.2017 10:20 15,8 C 15,0 C 13,9 C 94 % 15 lf 1011,6 hPa 0,0 l/m 0 min 2 min 64 W/m 20,9 km/h (4 Bft) 97,87 %
02.10.2017 10:22 15,8 C 15,0 C 13,9 C 94 % 15 lf 1011,6 hPa 0,0 l/m 0 min 2 min 61 W/m 23,0 km/h (4 Bft) 97,87 %
02.10.2017 10:24 15,8 C 15,0 C 13,9 C 94 % 15 lf 1011,6 hPa 0,0 l/m 0 min 2 min 65 W/m 18,8 km/h (3 Bft) 100,00 %
02.10.2017 10:26 15,8 C 15,0 C 13,9 C 94 % 15 lf 1011,6 hPa 0,0 l/m 0 min 2 min 65 W/m 14,6 km/h (3 Bft) 100,00 %
02.10.2017 10:28 15,9 C 15,0 C 13,9 C 95 % 15 lf 1011,7 hPa 0,0 l/m 0 min 2 min 67 W/m 14,6 km/h (3 Bft) 100,00 %
02.10.2017 10:30 15,8 C 15,0 C 13,9 C 95 % 15 lf 1011,7 hPa 0,0 l/m 0 min 2 min 72 W/m 16,7 km/h (3 Bft) 100,00 %
02.10.2017 10:32 15,9 C 15,0 C 14,4 C 95 % 15 lf 1011,8 hPa 0,0 l/m 0 min 2 min 80 W/m 20,9 km/h (4 Bft) 100,00 %
02.10.2017 10:34 15,9 C 15,0 C 14,4 C 95 % 15 lf 1011,9 hPa 0,0 l/m 0 min 0 min 83 W/m 16,7 km/h (3 Bft) 100,00 %
02.10.2017 10:36 15,9 C 15,0 C 14,4 C 95 % 15 lf 1011,8 hPa 0,0 l/m 0 min 2 min 77 W/m 23,0 km/h (4 Bft) 97,87 %
02.10.2017 10:38 15,9 C 15,0 C 14,4 C 95 % 15 lf 1011,7 hPa 0,0 l/m 0 min 0 min 74 W/m 16,7 km/h (3 Bft) 100,00 %
02.10.2017 10:40 15,9 C 15,0 C 14,4 C 95 % 15 lf 1011,7 hPa 0,0 l/m 0 min 0 min 72 W/m 14,6 km/h (3 Bft) 100,00 %
02.10.2017 10:42 15,9 C 15,0 C 14,4 C 95 % 15 lf 1011,8 hPa 0,0 l/m 0 min 2 min 68 W/m 14,6 km/h (3 Bft) 100,00 %
02.10.2017 10:44 15,9 C 15,0 C 14,4 C 95 % 15 lf 1011,7 hPa 0,0 l/m 0 min 2 min 63 W/m 18,8 km/h (3 Bft) 100,00 %
02.10.2017 10:46 15,9 C 15,0 C 14,4 C 95 % 15 lf 1011,8 hPa 0,0 l/m 0 min 2 min 60 W/m 12,6 km/h (3 Bft) 100,00 %
02.10.2017 10:48 15,9 C 15,0 C 14,4 C 95 % 15 lf 1011,7 hPa 0,0 l/m 0 min 2 min 56 W/m 10,5 km/h (2 Bft) 100,00 %
02.10.2017 10:50 15,9 C 15,0 C 14,4 C 95 % 15 lf 1011,8 hPa 0,0 l/m 0 min 2 min 50 W/m 16,7 km/h (3 Bft) 100,00 %
02.10.2017 10:52 15,9 C 15,0 C 14,4 C 95 % 15 lf 1011,6 hPa 0,0 l/m 0 min 2 min 49 W/m 12,6 km/h (3 Bft) 95,65 %
02.10.2017 10:54 15,9 C 15,0 C 14,4 C 95 % 15 lf 1011,6 hPa 0,0 l/m 0 min 2 min 54 W/m 10,5 km/h (2 Bft) 95,74 %
02.10.2017 10:56 15,9 C 15,0 C 14,4 C 95 % 15 lf 1011,7 hPa 0,0 l/m 0 min 0 min 69 W/m 10,5 km/h (2 Bft) 97,87 %
02.10.2017 10:58 15,9 C 15,0 C 14,4 C 95 % 15 lf 1011,8 hPa 0,0 l/m 0 min 0 min 67 W/m 10,5 km/h (2 Bft) 95,74 %
02.10.2017 11:00 15,9 C 15,0 C 14,4 C 95 % 15 lf 1011,9 hPa 0,0 l/m 0 min 0 min 68 W/m 10,5 km/h (2 Bft) 97,87 %
02.10.2017 11:02 15,9 C 15,0 C 14,4 C 95 % 14 lf 1011,9 hPa 0,0 l/m 0 min 0 min 71 W/m 10,5 km/h (2 Bft) 97,87 %
02.10.2017 11:04 15,9 C 15,6 C 14,4 C 95 % 14 lf 1011,9 hPa 0,0 l/m 0 min 0 min 87 W/m 14,6 km/h (3 Bft) 97,83 %
02.10.2017 11:06 15,9 C 15,6 C 14,4 C 95 % 14 lf 1011,9 hPa 0,0 l/m 0 min 0 min 96 W/m 14,6 km/h (3 Bft) 97,87 %
02.10.2017 11:08 15,9 C 15,6 C 15,0 C 95 % 13 lf 1011,9 hPa 0,0 l/m 0 min 0 min 112 W/m 12,6 km/h (3 Bft) 95,74 %
02.10.2017 11:10 15,9 C 15,6 C 15,0 C 95 % 12 lf 1011,9 hPa 0,0 l/m 0 min 0 min 122 W/m 12,6 km/h (3 Bft) 97,87 %
02.10.2017 11:12 15,9 C 15,6 C 15,0 C 95 % 9 lf 1011,8 hPa 0,0 l/m 0 min 0 min 108 W/m 16,7 km/h (3 Bft) 95,74 %
02.10.2017 11:14 16,0 C 15,6 C 15,0 C 95 % 7 lf 1011,9 hPa 0,0 l/m 0 min 0 min 93 W/m 14,6 km/h (3 Bft) 93,62 %
02.10.2017 11:16 16,0 C 15,6 C 15,0 C 95 % 4 lf 1011,9 hPa 0,0 l/m 0 min 0 min 88 W/m 18,8 km/h (3 Bft) 95,65 %
02.10.2017 11:18 16,0 C 15,6 C 15,0 C 95 % 3 lf 1012,0 hPa 0,0 l/m 0 min 0 min 90 W/m 20,9 km/h (4 Bft) 95,74 %
02.10.2017 11:20 16,0 C 15,6 C 15,0 C 95 % 2 lf 1011,9 hPa 0,0 l/m 0 min 0 min 90 W/m 16,7 km/h (3 Bft) 93,62 %
02.10.2017 11:22 16,0 C 15,6 C 15,0 C 96 % 0 lf 1012,0 hPa 0,0 l/m 0 min 0 min 97 W/m 18,8 km/h (3 Bft) 95,74 %
02.10.2017 11:24 16,0 C 15,6 C 15,0 C 96 % 0 lf 1012,0 hPa 0,0 l/m 0 min 0 min 111 W/m 27,2 km/h (4 Bft) 95,74 %
02.10.2017 11:26 16,0 C 16,1 C 15,0 C 96 % 0 lf 1012,0 hPa 0,0 l/m 0 min 0 min 121 W/m 23,0 km/h (4 Bft) 89,36 %
02.10.2017 11:28 16,0 C 16,1 C 15,0 C 95 % 0 lf 1012,0 hPa 0,0 l/m 0 min 2 min 133 W/m 18,8 km/h (3 Bft) 95,65 %
02.10.2017 11:30 16,1 C 16,7 C 15,0 C 95 % 0 lf 1012,0 hPa 0,0 l/m 0 min 0 min 132 W/m 14,6 km/h (3 Bft) 93,62 %
02.10.2017 11:32 16,1 C 16,7 C 15,0 C 95 % 0 lf 1012,0 hPa 0,0 l/m 0 min 0 min 154 W/m 14,6 km/h (3 Bft) 93,62 %
02.10.2017 11:34 16,1 C 18,3 C 15,6 C 95 % 0 lf 1012,0 hPa 0,0 l/m 0 min 0 min 183 W/m 20,9 km/h (4 Bft) 91,49 %
02.10.2017 11:36 16,2 C 19,4 C 16,1 C 95 % 0 lf 1012,0 hPa 0,0 l/m 2 min 0 min 336 W/m 18,8 km/h (3 Bft) 91,49 %
02.10.2017 11:38 16,2 C 20,6 C 16,7 C 95 % 0 lf 1012,0 hPa 0,0 l/m 2 min 0 min 358 W/m 16,7 km/h (3 Bft) 89,36 %
02.10.2017 11:40 16,3 C 20,0 C 16,7 C 95 % 0 lf 1012,0 hPa 0,0 l/m 2 min 0 min 343 W/m 20,9 km/h (4 Bft) 91,30 %
02.10.2017 11:42 16,4 C 22,2 C 17,8 C 95 % 0 lf 1012,0 hPa 0,0 l/m 2 min 0 min 374 W/m 16,7 km/h (3 Bft) 93,62 %
02.10.2017 11:44 16,6 C 22,2 C 17,8 C 95 % 0 lf 1011,9 hPa 0,0 l/m 2 min 0 min 394 W/m 25,1 km/h (4 Bft) 93,62 %
02.10.2017 11:46 16,7 C 22,2 C 17,2 C 95 % 0 lf 1011,8 hPa 0,0 l/m 2 min 0 min 383 W/m 23,0 km/h (4 Bft) 91,49 %
02.10.2017 11:48 16,8 C 21,1 C 16,7 C 95 % 0 lf 1011,6 hPa 0,0 l/m 2 min 0 min 384 W/m 25,1 km/h (4 Bft) 89,36 %
02.10.2017 11:50 16,8 C 20,0 C 16,1 C 94 % 0 lf 1011,3 hPa 0,0 l/m 0 min 0 min 230 W/m 27,2 km/h (4 Bft) 84,78 %
02.10.2017 11:52 16,9 C 19,4 C 16,1 C 94 % 0 lf 1011,2 hPa 0,0 l/m 0 min 0 min 197 W/m 23,0 km/h (4 Bft) 94,00 %
02.10.2017 11:54 16,9 C 18,9 C 15,6 C 93 % 0 lf 1011,2 hPa 0,0 l/m 0 min 0 min 175 W/m 18,8 km/h (3 Bft) 93,62 %
02.10.2017 11:56 16,9 C 18,9 C 15,6 C 93 % 0 lf 1011,1 hPa 0,0 l/m 0 min 0 min 199 W/m 20,9 km/h (4 Bft) 93,62 %
02.10.2017 11:58 17,0 C 18,9 C 15,6 C 92 % 0 lf 1011,0 hPa 0,0 l/m 0 min 0 min 231 W/m 33,5 km/h (5 Bft) 95,74 %
02.10.2017 12:00 17,0 C 18,9 C 16,1 C 92 % 0 lf 1011,0 hPa 0,0 l/m 0 min 0 min 257 W/m 29,3 km/h (5 Bft) 97,83 %
02.10.2017 12:02 17,0 C 18,9 C 16,1 C 91 % 0 lf 1011,0 hPa 0,0 l/m 0 min 0 min 257 W/m 27,2 km/h (4 Bft) 95,74 %
02.10.2017 12:04 17,1 C 18,9 C 16,1 C 91 % 0 lf 1011,2 hPa 0,0 l/m 0 min 0 min 260 W/m 27,2 km/h (4 Bft) 95,74 %
02.10.2017 12:06 17,1 C 18,9 C 16,1 C 90 % 0 lf 1011,2 hPa 0,0 l/m 2 min 0 min 274 W/m 12,6 km/h (3 Bft) 91,49 %
02.10.2017 12:10 17,1 C 18,9 C 16,1 C 90 % 0 lf 1011,2 hPa 0,0 l/m 0 min 0 min 243 W/m 25,1 km/h (4 Bft) 93,90 %
02.10.2017 12:12 17,2 C 18,9 C 16,1 C 89 % 0 lf 1011,2 hPa 0,0 l/m 0 min 0 min 252 W/m 23,0 km/h (4 Bft) 97,87 %
02.10.2017 12:14 17,2 C 18,9 C 16,1 C 89 % 0 lf 1011,2 hPa 0,0 l/m 0 min 0 min 249 W/m 31,4 km/h (5 Bft) 95,65 %
02.10.2017 12:16 17,2 C 18,9 C 16,1 C 88 % 0 lf 1011,2 hPa 0,0 l/m 0 min 0 min 261 W/m 27,2 km/h (4 Bft) 97,87 %
02.10.2017 12:18 17,3 C 18,9 C 16,1 C 88 % 0 lf 1011,2 hPa 0,0 l/m 2 min 0 min 288 W/m 29,3 km/h (5 Bft) 95,74 %
02.10.2017 12:20 17,3 C 19,4 C 16,1 C 87 % 0 lf 1011,2 hPa 0,0 l/m 0 min 0 min 266 W/m 23,0 km/h (4 Bft) 96,61 %
02.10.2017 12:22 17,3 C 19,4 C 16,1 C 87 % 0 lf 1011,3 hPa 0,0 l/m 0 min 0 min 248 W/m 27,2 km/h (4 Bft) 100,00 %
02.10.2017 12:24 17,4 C 19,4 C 16,1 C 86 % 0 lf 1011,3 hPa 0,0 l/m 0 min 0 min 263 W/m 29,3 km/h (5 Bft) 95,74 %
02.10.2017 12:26 17,4 C 19,4 C 16,1 C 86 % 0 lf 1011,4 hPa 0,0 l/m 2 min 0 min 288 W/m 31,4 km/h (5 Bft) 95,65 %
02.10.2017 12:28 17,4 C 20,0 C 16,7 C 85 % 0 lf 1011,4 hPa 0,0 l/m 2 min 0 min 311 W/m 23,0 km/h (4 Bft) 95,74 %
02.10.2017 12:30 17,5 C 20,0 C 16,7 C 85 % 0 lf 1011,4 hPa 0,0 l/m 2 min 0 min 280 W/m 20,9 km/h (4 Bft) 97,87 %
02.10.2017 12:32 17,6 C 20,0 C 16,7 C 85 % 0 lf 1011,5 hPa 0,0 l/m 0 min 0 min 262 W/m 20,9 km/h (4 Bft) 97,87 %
02.10.2017 12:34 17,6 C 19,4 C 16,7 C 85 % 0 lf 1011,5 hPa 0,0 l/m 0 min 0 min 230 W/m 35,6 km/h (5 Bft) 97,87 %
02.10.2017 12:36 17,7 C 19,4 C 16,7 C 84 % 0 lf 1011,5 hPa 0,0 l/m 0 min 0 min 269 W/m 39,7 km/h (6 Bft) 97,87 %
02.10.2017 12:38 17,7 C 20,6 C 17,2 C 84 % 0 lf 1011,6 hPa 0,0 l/m 2 min 0 min 284 W/m 29,3 km/h (5 Bft) 97,83 %
02.10.2017 12:40 17,8 C 22,8 C 18,9 C 84 % 0 lf 1011,6 hPa 0,0 l/m 2 min 0 min 596 W/m 31,4 km/h (5 Bft) 95,74 %
02.10.2017 12:42 17,9 C 21,7 C 18,9 C 84 % 0 lf 1011,6 hPa 0,0 l/m 2 min 0 min 664 W/m 27,2 km/h (4 Bft) 95,74 %
02.10.2017 12:44 18,0 C 20,6 C 18,3 C 84 % 0 lf 1011,6 hPa 0,0 l/m 0 min 0 min 271 W/m 27,2 km/h (4 Bft) 95,74 %
02.10.2017 12:46 18,1 C 20,0 C 18,3 C 83 % 0 lf 1011,5 hPa 0,0 l/m 0 min 0 min 246 W/m 29,3 km/h (5 Bft) 97,87 %
02.10.2017 12:48 18,1 C 19,4 C 18,3 C 83 % 0 lf 1011,6 hPa 0,0 l/m 0 min 0 min 246 W/m 25,1 km/h (4 Bft) 97,87 %
02.10.2017 12:50 18,1 C 20,0 C 18,3 C 83 % 0 lf 1011,6 hPa 0,0 l/m 2 min 0 min 289 W/m 25,1 km/h (4 Bft) 96,55 %
02.10.2017 12:52 18,1 C 20,0 C 18,3 C 82 % 0 lf 1011,6 hPa 0,0 l/m 2 min 0 min 285 W/m 29,3 km/h (5 Bft) 97,14 %
02.10.2017 12:54 18,1 C 20,6 C 18,3 C 82 % 0 lf 1011,6 hPa 0,0 l/m 2 min 0 min 291 W/m 27,2 km/h (4 Bft) 97,87 %
02.10.2017 12:56 18,1 C 20,0 C 17,8 C 82 % 0 lf 1011,6 hPa 0,0 l/m 0 min 0 min 276 W/m 33,5 km/h (5 Bft) 97,87 %
02.10.2017 12:58 18,1 C 20,6 C 17,8 C 82 % 0 lf 1011,7 hPa 0,0 l/m 2 min 0 min 285 W/m 27,2 km/h (4 Bft) 100,00 %
02.10.2017 13:00 18,2 C 21,1 C 17,8 C 82 % 0 lf 1011,8 hPa 0,0 l/m 2 min 0 min 350 W/m 31,4 km/h (5 Bft) 100,00 %
02.10.2017 13:02 18,2 C 22,2 C 17,8 C 81 % 0 lf 1011,9 hPa 0,0 l/m 2 min 0 min 408 W/m 35,6 km/h (5 Bft) 100,00 %
02.10.2017 13:04 18,2 C 22,8 C 17,8 C 81 % 0 lf 1011,8 hPa 0,0 l/m 2 min 0 min 332 W/m 31,4 km/h (5 Bft) 100,00 %
02.10.2017 13:06 18,2 C 22,2 C 17,8 C 80 % 0 lf 1011,9 hPa 0,0 l/m 2 min 0 min 332 W/m 39,7 km/h (6 Bft) 100,00 %
02.10.2017 13:08 18,2 C 21,1 C 17,8 C 79 % 0 lf 1011,9 hPa 0,0 l/m 0 min 0 min 272 W/m 31,4 km/h (5 Bft) 100,00 %
02.10.2017 13:10 18,2 C 22,2 C 17,8 C 79 % 0 lf 1011,8 hPa 0,0 l/m 0 min 0 min 223 W/m 31,4 km/h (5 Bft) 100,00 %
02.10.2017 13:12 18,3 C 23,9 C 18,3 C 80 % 0 lf 1011,8 hPa 0,0 l/m 2 min 0 min 564 W/m 25,1 km/h (4 Bft) 95,74 %
02.10.2017 13:14 18,4 C 24,4 C 18,3 C 80 % 0 lf 1011,6 hPa 0,0 l/m 2 min 0 min 674 W/m 35,6 km/h (5 Bft) 100,00 %
02.10.2017 13:16 18,6 C 25,0 C 18,9 C 79 % 0 lf 1011,8 hPa 0,0 l/m 2 min 0 min 694 W/m 35,6 km/h (5 Bft) 100,00 %
02.10.2017 13:18 18,7 C 25,0 C 18,9 C 79 % 0 lf 1011,8 hPa 0,0 l/m 2 min 0 min 694 W/m 27,2 km/h (4 Bft) 100,00 %
02.10.2017 13:20 18,8 C 22,8 C 18,3 C 78 % 0 lf 1011,8 hPa 0,0 l/m 2 min 0 min 459 W/m 37,7 km/h (5 Bft) 100,00 %
02.10.2017 13:22 18,8 C 21,1 C 17,8 C 77 % 0 lf 1011,8 hPa 0,0 l/m 0 min 0 min 212 W/m 37,7 km/h (5 Bft) 100,00 %
02.10.2017 13:24 18,7 C 20,0 C 17,2 C 76 % 0 lf 1011,8 hPa 0,0 l/m 0 min 0 min 149 W/m 48,1 km/h (6 Bft) 100,00 %
02.10.2017 13:26 18,6 C 19,4 C 17,2 C 76 % 0 lf 1011,8 hPa 0,0 l/m 0 min 0 min 115 W/m 43,9 km/h (6 Bft) 100,00 %
02.10.2017 13:28 18,5 C 20,0 C 16,7 C 76 % 0 lf 1011,8 hPa 0,0 l/m 0 min 0 min 168 W/m 37,7 km/h (5 Bft) 95,74 %
02.10.2017 13:30 18,4 C 21,1 C 17,2 C 76 % 0 lf 1011,8 hPa 0,0 l/m 2 min 0 min 362 W/m 35,6 km/h (5 Bft) 97,87 %
02.10.2017 13:32 18,5 C 22,8 C 17,2 C 76 % 0 lf 1011,7 hPa 0,0 l/m 2 min 0 min 439 W/m 33,5 km/h (5 Bft) 100,00 %
02.10.2017 13:34 18,6 C 23,9 C 17,8 C 77 % 0 lf 1011,7 hPa 0,0 l/m 2 min 0 min 545 W/m 29,3 km/h (5 Bft) 95,74 %
02.10.2017 13:36 18,7 C 25,0 C 17,8 C 77 % 0 lf 1011,7 hPa 0,0 l/m 2 min 0 min 606 W/m 25,1 km/h (4 Bft) 100,00 %
02.10.2017 13:38 18,7 C 25,0 C 18,3 C 77 % 0 lf 1011,7 hPa 0,0 l/m 2 min 0 min 622 W/m 29,3 km/h (5 Bft) 100,00 %
02.10.2017 13:40 18,8 C 24,4 C 18,3 C 77 % 0 lf 1011,6 hPa 0,0 l/m 2 min 0 min 521 W/m 31,4 km/h (5 Bft) 97,87 %
02.10.2017 13:42 18,9 C 24,4 C 18,3 C 76 % 0 lf 1011,7 hPa 0,0 l/m 0 min 0 min 246 W/m 27,2 km/h (4 Bft) 100,00 %
02.10.2017 13:44 18,9 C 23,9 C 18,3 C 75 % 0 lf 1011,7 hPa 0,0 l/m 2 min 0 min 610 W/m 39,7 km/h (6 Bft) 97,87 %
02.10.2017 13:46 19,0 C 23,9 C 17,8 C 74 % 0 lf 1011,6 hPa 0,0 l/m 2 min 0 min 596 W/m 37,7 km/h (5 Bft) 97,87 %
02.10.2017 13:48 19,1 C 25,0 C 18,3 C 75 % 0 lf 1011,7 hPa 0,0 l/m 2 min 0 min 587 W/m 31,4 km/h (5 Bft) 97,83 %
02.10.2017 13:50 19,1 C 23,3 C 17,8 C 74 % 0 lf 1011,7 hPa 0,0 l/m 2 min 0 min 543 W/m 46,0 km/h (6 Bft) 98,31 %
02.10.2017 13:52 19,1 C 23,3 C 17,8 C 73 % 0 lf 1011,8 hPa 0,0 l/m 2 min 0 min 513 W/m 37,7 km/h (5 Bft) 97,14 %
02.10.2017 13:54 19,1 C 23,9 C 17,8 C 72 % 0 lf 1011,6 hPa 0,0 l/m 2 min 0 min 513 W/m 39,7 km/h (6 Bft) 97,87 %
02.10.2017 13:56 19,2 C 24,4 C 17,8 C 73 % 0 lf 1011,6 hPa 0,0 l/m 2 min 0 min 518 W/m 31,4 km/h (5 Bft) 97,87 %
02.10.2017 13:58 19,2 C 23,9 C 18,3 C 74 % 0 lf 1011,9 hPa 0,0 l/m 2 min 0 min 575 W/m 29,3 km/h (5 Bft) 97,87 %
02.10.2017 14:00 19,2 C 24,4 C 18,3 C 74 % 0 lf 1011,9 hPa 0,0 l/m 2 min 0 min 568 W/m 27,2 km/h (4 Bft) 95,65 %
02.10.2017 14:02 19,3 C 25,0 C 18,3 C 74 % 0 lf 1011,8 hPa 0,0 l/m 2 min 0 min 474 W/m 23,0 km/h (4 Bft) 95,74 %
02.10.2017 14:04 19,4 C 25,6 C 18,3 C 74 % 0 lf 1011,9 hPa 0,0 l/m 2 min 0 min 567 W/m 33,5 km/h (5 Bft) 97,87 %
02.10.2017 14:06 19,4 C 23,9 C 18,3 C 72 % 0 lf 1011,8 hPa 0,0 l/m 2 min 0 min 561 W/m 33,5 km/h (5 Bft) 97,87 %
02.10.2017 14:08 19,4 C 25,0 C 18,3 C 72 % 0 lf 1011,9 hPa 0,0 l/m 2 min 0 min 574 W/m 31,4 km/h (5 Bft) 95,74 %
02.10.2017 14:10 19,4 C 24,4 C 18,3 C 73 % 0 lf 1011,9 hPa 0,0 l/m 2 min 0 min 577 W/m 31,4 km/h (5 Bft) 95,74 %
02.10.2017 14:12 19,4 C 25,0 C 18,3 C 73 % 0 lf 1011,9 hPa 0,0 l/m 2 min 0 min 587 W/m 23,0 km/h (4 Bft) 91,30 %
02.10.2017 14:14 19,5 C 24,4 C 18,9 C 73 % 0 lf 1011,9 hPa 0,0 l/m 2 min 0 min 578 W/m 29,3 km/h (5 Bft) 95,74 %
02.10.2017 14:16 19,6 C 25,0 C 18,9 C 73 % 0 lf 1011,9 hPa 0,0 l/m 2 min 0 min 577 W/m 31,4 km/h (5 Bft) 95,74 %
02.10.2017 14:18 19,6 C 25,0 C 18,9 C 73 % 0 lf 1011,9 hPa 0,0 l/m 2 min 0 min 578 W/m 35,6 km/h (5 Bft) 95,74 %
02.10.2017 14:20 19,7 C 26,1 C 18,9 C 73 % 0 lf 1011,8 hPa 0,0 l/m 2 min 0 min 591 W/m 20,9 km/h (4 Bft) 91,38 %
02.10.2017 14:22 19,7 C 26,7 C 19,4 C 73 % 0 lf 1011,9 hPa 0,0 l/m 2 min 0 min 596 W/m 37,7 km/h (5 Bft) 97,22 %
02.10.2017 14:24 19,8 C 25,6 C 18,9 C 72 % 0 lf 1011,9 hPa 0,0 l/m 2 min 0 min 606 W/m 37,7 km/h (5 Bft) 93,48 %
02.10.2017 14:26 19,8 C 25,6 C 19,4 C 72 % 0 lf 1011,8 hPa 0,0 l/m 2 min 0 min 575 W/m 25,1 km/h (4 Bft) 93,62 %
02.10.2017 14:28 19,9 C 25,0 C 18,9 C 72 % 0 lf 1011,9 hPa 0,0 l/m 2 min 0 min 495 W/m 25,1 km/h (4 Bft) 95,74 %
02.10.2017 14:30 19,9 C 25,6 C 19,4 C 72 % 0 lf 1011,9 hPa 0,0 l/m 2 min 0 min 548 W/m 25,1 km/h (4 Bft) 95,74 %
02.10.2017 14:32 20,0 C 25,6 C 19,4 C 72 % 0 lf 1011,8 hPa 0,0 l/m 2 min 0 min 590 W/m 31,4 km/h (5 Bft) 91,49 %
02.10.2017 14:34 20,0 C 25,0 C 18,9 C 69 % 0 lf 1011,8 hPa 0,0 l/m 2 min 0 min 577 W/m 37,7 km/h (5 Bft) 93,62 %
02.10.2017 14:36 20,0 C 25,0 C 18,9 C 68 % 0 lf 1011,8 hPa 0,0 l/m 2 min 0 min 570 W/m 29,3 km/h (5 Bft) 95,65 %
02.10.2017 14:38 20,0 C 23,9 C 18,9 C 68 % 0 lf 1011,9 hPa 0,0 l/m 2 min 0 min 571 W/m 29,3 km/h (5 Bft) 93,62 %
02.10.2017 14:40 20,0 C 24,4 C 18,9 C 69 % 0 lf 1011,8 hPa 0,0 l/m 2 min 0 min 571 W/m 29,3 km/h (5 Bft) 95,74 %
02.10.2017 14:42 19,9 C 22,8 C 18,9 C 68 % 0 lf 1011,6 hPa 0,0 l/m 2 min 0 min 394 W/m 39,7 km/h (6 Bft) 97,87 %
02.10.2017 14:44 19,9 C 23,3 C 18,3 C 67 % 0 lf 1011,7 hPa 0,0 l/m 0 min 0 min 216 W/m 39,7 km/h (6 Bft) 95,74 %
02.10.2017 14:46 19,8 C 22,8 C 18,3 C 68 % 0 lf 1011,6 hPa 0,0 l/m 2 min 0 min 491 W/m 35,6 km/h (5 Bft) 93,48 %
02.10.2017 14:48 19,7 C 21,7 C 18,3 C 67 % 0 lf 1011,6 hPa 0,0 l/m 2 min 0 min 554 W/m 33,5 km/h (5 Bft) 93,62 %
02.10.2017 14:50 19,6 C 22,8 C 18,3 C 67 % 0 lf 1011,5 hPa 0,0 l/m 2 min 0 min 542 W/m 33,5 km/h (5 Bft) 93,62 %
02.10.2017 14:52 19,6 C 23,9 C 18,3 C 67 % 0 lf 1011,5 hPa 0,0 l/m 2 min 0 min 523 W/m 33,5 km/h (5 Bft) 87,23 %
02.10.2017 14:54 19,6 C 23,9 C 18,3 C 67 % 0 lf 1011,4 hPa 0,0 l/m 2 min 0 min 515 W/m 29,3 km/h (5 Bft) 95,74 %
02.10.2017 14:56 19,7 C 23,9 C 18,3 C 67 % 0 lf 1011,4 hPa 0,0 l/m 2 min 0 min 544 W/m 31,4 km/h (5 Bft) 95,74 %
02.10.2017 14:58 19,7 C 25,0 C 18,9 C 67 % 0 lf 1011,4 hPa 0,0 l/m 2 min 0 min 543 W/m 27,2 km/h (4 Bft) 95,74 %
02.10.2017 15:00 19,8 C 24,4 C 18,9 C 67 % 0 lf 1011,5 hPa 0,0 l/m 2 min 0 min 500 W/m 25,1 km/h (4 Bft) 93,48 %
02.10.2017 15:02 19,8 C 24,4 C 18,9 C 67 % 0 lf 1011,4 hPa 0,0 l/m 2 min 0 min 542 W/m 29,3 km/h (5 Bft) 87,23 %
02.10.2017 15:04 19,9 C 25,0 C 18,9 C 67 % 0 lf 1011,4 hPa 0,0 l/m 2 min 0 min 524 W/m 23,0 km/h (4 Bft) 93,62 %
02.10.2017 15:06 19,9 C 25,0 C 18,9 C 66 % 0 lf 1011,4 hPa 0,0 l/m 2 min 0 min 537 W/m 52,3 km/h (7 Bft) 93,62 %
02.10.2017 15:08 20,0 C 25,0 C 18,9 C 66 % 0 lf 1011,4 hPa 0,0 l/m 2 min 0 min 508 W/m 37,7 km/h (5 Bft) 95,74 %
02.10.2017 15:10 20,1 C 25,6 C 18,9 C 66 % 0 lf 1011,4 hPa 0,0 l/m 2 min 0 min 491 W/m 43,9 km/h (6 Bft) 91,30 %
02.10.2017 15:12 20,1 C 25,0 C 18,9 C 65 % 0 lf 1011,4 hPa 0,0 l/m 2 min 0 min 497 W/m 29,3 km/h (5 Bft) 93,62 %
02.10.2017 15:14 20,1 C 25,0 C 20,0 C 65 % 0 lf 1011,3 hPa 0,0 l/m 2 min 0 min 502 W/m 37,7 km/h (5 Bft) 97,87 %
02.10.2017 15:16 20,1 C 24,4 C 20,0 C 66 % 0 lf 1011,3 hPa 0,0 l/m 2 min 0 min 498 W/m 25,1 km/h (4 Bft) 97,87 %
02.10.2017 15:18 20,1 C 23,9 C 19,4 C 65 % 0 lf 1011,3 hPa 0,0 l/m 2 min 0 min 488 W/m 48,1 km/h (6 Bft) 93,62 %
02.10.2017 15:20 20,1 C 24,4 C 19,4 C 66 % 0 lf 1011,4 hPa 0,0 l/m 2 min 0 min 485 W/m 29,3 km/h (5 Bft) 96,55 %
02.10.2017 15:22 20,1 C 24,4 C 19,4 C 66 % 0 lf 1011,4 hPa 0,0 l/m 2 min 0 min 494 W/m 35,6 km/h (5 Bft) 97,14 %
02.10.2017 15:24 20,1 C 24,4 C 19,4 C 66 % 0 lf 1011,4 hPa 0,0 l/m 2 min 0 min 507 W/m 35,6 km/h (5 Bft) 95,74 %
02.10.2017 15:26 20,2 C 25,0 C 19,4 C 66 % 0 lf 1011,4 hPa 0,0 l/m 2 min 0 min 512 W/m 27,2 km/h (4 Bft) 95,74 %
02.10.2017 15:28 20,2 C 23,9 C 19,4 C 67 % 0 lf 1011,4 hPa 0,0 l/m 2 min 0 min 382 W/m 31,4 km/h (5 Bft) 97,87 %
02.10.2017 15:30 20,2 C 23,3 C 18,9 C 66 % 0 lf 1011,4 hPa 0,0 l/m 2 min 0 min 404 W/m 29,3 km/h (5 Bft) 97,87 %
02.10.2017 15:32 20,2 C 22,8 C 18,9 C 67 % 0 lf 1011,5 hPa 0,0 l/m 2 min 0 min 328 W/m 27,2 km/h (4 Bft) 95,74 %
02.10.2017 15:34 20,2 C 21,7 C 18,9 C 67 % 0 lf 1011,6 hPa 0,0 l/m 2 min 0 min 238 W/m 27,2 km/h (4 Bft) 100,00 %
02.10.2017 15:36 20,1 C 21,1 C 18,9 C 66 % 0 lf 1011,5 hPa 0,0 l/m 0 min 0 min 223 W/m 25,1 km/h (4 Bft) 100,00 %
02.10.2017 15:38 19,9 C 20,0 C 18,3 C 66 % 0 lf 1011,5 hPa 0,0 l/m 0 min 0 min 180 W/m 35,6 km/h (5 Bft) 100,00 %
02.10.2017 15:40 19,8 C 20,0 C 18,3 C 66 % 0 lf 1011,5 hPa 0,0 l/m 0 min 0 min 200 W/m 39,7 km/h (6 Bft) 100,00 %
02.10.2017 15:42 19,7 C 20,6 C 18,3 C 66 % 0 lf 1011,5 hPa 0,0 l/m 0 min 0 min 201 W/m 37,7 km/h (5 Bft) 97,87 %
02.10.2017 15:44 19,6 C 21,7 C 18,3 C 67 % 0 lf 1011,4 hPa 0,0 l/m 2 min 0 min 452 W/m 31,4 km/h (5 Bft) 100,00 %
02.10.2017 15:46 19,6 C 22,2 C 18,3 C 67 % 0 lf 1011,5 hPa 0,0 l/m 2 min 0 min 328 W/m 27,2 km/h (4 Bft) 100,00 %
02.10.2017 15:48 19,6 C 22,2 C 18,3 C 67 % 0 lf 1011,5 hPa 0,0 l/m 2 min 0 min 290 W/m 29,3 km/h (5 Bft) 100,00 %
02.10.2017 15:50 19,5 C 21,1 C 18,3 C 67 % 0 lf 1011,4 hPa 0,0 l/m 0 min 0 min 162 W/m 27,2 km/h (4 Bft) 98,31 %
02.10.2017 15:52 19,5 C 21,7 C 17,8 C 67 % 0 lf 1011,4 hPa 0,0 l/m 0 min 0 min 153 W/m 29,3 km/h (5 Bft) 100,00 %
02.10.2017 15:54 19,4 C 21,1 C 17,8 C 67 % 0 lf 1011,3 hPa 0,0 l/m 0 min 0 min 171 W/m 41,8 km/h (6 Bft) 100,00 %
02.10.2017 15:56 19,4 C 22,8 C 17,8 C 67 % 0 lf 1011,2 hPa 0,0 l/m 2 min 0 min 308 W/m 20,9 km/h (4 Bft) 97,87 %
02.10.2017 15:58 19,4 C 23,3 C 17,8 C 67 % 0 lf 1011,2 hPa 0,0 l/m 2 min 0 min 417 W/m 25,1 km/h (4 Bft) 97,83 %
02.10.2017 16:00 19,4 C 23,9 C 18,3 C 68 % 0 lf 1011,2 hPa 0,0 l/m 2 min 0 min 409 W/m 23,0 km/h (4 Bft) 93,62 %
02.10.2017 16:02 19,5 C 23,9 C 18,3 C 67 % 0 lf 1011,2 hPa 0,0 l/m 2 min 0 min 407 W/m 27,2 km/h (4 Bft) 97,87 %
02.10.2017 16:04 19,6 C 23,9 C 17,8 C 67 % 0 lf 1011,3 hPa 0,0 l/m 2 min 0 min 412 W/m 35,6 km/h (5 Bft) 95,74 %
02.10.2017 16:06 19,6 C 22,8 C 17,8 C 66 % 0 lf 1011,2 hPa 0,0 l/m 2 min 0 min 374 W/m 37,7 km/h (5 Bft) 97,87 %
02.10.2017 16:08 19,6 C 22,8 C 17,8 C 66 % 0 lf 1011,2 hPa 0,0 l/m 2 min 0 min 325 W/m 33,5 km/h (5 Bft) 97,87 %
02.10.2017 16:10 19,6 C 22,8 C 17,8 C 66 % 0 lf 1011,2 hPa 0,0 l/m 2 min 0 min 352 W/m 25,1 km/h (4 Bft) 95,65 %
02.10.2017 16:12 19,6 C 22,8 C 17,8 C 66 % 0 lf 1011,3 hPa 0,0 l/m 2 min 0 min 259 W/m 23,0 km/h (4 Bft) 97,87 %
02.10.2017 16:14 19,6 C 22,8 C 17,8 C 66 % 0 lf 1011,2 hPa 0,0 l/m 2 min 0 min 244 W/m 27,2 km/h (4 Bft) 95,74 %
02.10.2017 16:16 19,6 C 21,7 C 17,8 C 66 % 0 lf 1011,3 hPa 0,0 l/m 2 min 0 min 232 W/m 20,9 km/h (4 Bft) 95,74 %
02.10.2017 16:18 19,6 C 22,2 C 17,8 C 67 % 0 lf 1011,2 hPa 0,0 l/m 0 min 0 min 194 W/m 27,2 km/h (4 Bft) 97,87 %
02.10.2017 16:20 19,6 C 23,3 C 17,8 C 67 % 0 lf 1011,2 hPa 0,0 l/m 2 min 0 min 386 W/m 16,7 km/h (3 Bft) 97,87 %
02.10.2017 16:22 19,6 C 22,8 C 17,8 C 66 % 0 lf 1011,2 hPa 0,0 l/m 2 min 0 min 371 W/m 27,2 km/h (4 Bft) 97,83 %
02.10.2017 16:24 19,6 C 22,8 C 17,8 C 66 % 0 lf 1011,3 hPa 0,0 l/m 2 min 0 min 373 W/m 25,1 km/h (4 Bft) 97,87 %
02.10.2017 16:26 19,7 C 22,2 C 17,8 C 66 % 0 lf 1011,3 hPa 0,0 l/m 2 min 0 min 278 W/m 35,6 km/h (5 Bft) 97,87 %
02.10.2017 16:28 19,6 C 22,8 C 17,8 C 66 % 0 lf 1011,2 hPa 0,0 l/m 2 min 0 min 266 W/m 31,4 km/h (5 Bft) 97,87 %
02.10.2017 16:30 19,6 C 22,8 C 17,8 C 66 % 0 lf 1011,2 hPa 0,0 l/m 2 min 0 min 351 W/m 35,6 km/h (5 Bft) 95,74 %
02.10.2017 16:32 19,6 C 22,8 C 17,8 C 64 % 0 lf 1011,1 hPa 0,0 l/m 2 min 0 min 361 W/m 41,8 km/h (6 Bft) 91,30 %
02.10.2017 16:34 19,6 C 22,2 C 18,3 C 63 % 0 lf 1011,3 hPa 0,0 l/m 2 min 0 min 365 W/m 43,9 km/h (6 Bft) 97,87 %
02.10.2017 16:36 19,6 C 22,2 C 18,3 C 64 % 0 lf 1011,2 hPa 0,0 l/m 2 min 0 min 361 W/m 33,5 km/h (5 Bft) 97,87 %
02.10.2017 16:38 19,6 C 22,2 C 18,3 C 64 % 0 lf 1011,3 hPa 0,0 l/m 2 min 0 min 386 W/m 39,7 km/h (6 Bft) 95,74 %
02.10.2017 16:40 19,6 C 22,2 C 18,3 C 64 % 0 lf 1011,3 hPa 0,0 l/m 2 min 0 min 391 W/m 39,7 km/h (6 Bft) 95,74 %
02.10.2017 16:42 19,7 C 22,8 C 18,3 C 64 % 0 lf 1011,3 hPa 0,0 l/m 2 min 0 min 383 W/m 43,9 km/h (6 Bft) 97,87 %
02.10.2017 16:44 19,7 C 21,7 C 18,3 C 64 % 0 lf 1011,3 hPa 0,0 l/m 2 min 0 min 382 W/m 39,7 km/h (6 Bft) 97,83 %
02.10.2017 16:46 19,6 C 20,6 C 18,3 C 64 % 0 lf 1011,2 hPa 0,0 l/m 2 min 0 min 201 W/m 31,4 km/h (5 Bft) 100,00 %
02.10.2017 16:48 19,6 C 21,1 C 18,3 C 65 % 0 lf 1011,3 hPa 0,0 l/m 2 min 0 min 250 W/m 33,5 km/h (5 Bft) 100,00 %
02.10.2017 16:50 19,6 C 20,6 C 18,3 C 65 % 0 lf 1011,3 hPa 0,0 l/m 2 min 0 min 341 W/m 31,4 km/h (5 Bft) 91,49 %
02.10.2017 16:52 19,6 C 21,1 C 18,3 C 65 % 0 lf 1011,3 hPa 0,0 l/m 2 min 0 min 337 W/m 29,3 km/h (5 Bft) 100,00 %
02.10.2017 16:54 19,6 C 21,1 C 18,3 C 65 % 0 lf 1011,3 hPa 0,0 l/m 2 min 0 min 315 W/m 27,2 km/h (4 Bft) 100,00 %
02.10.2017 16:56 19,6 C 21,1 C 18,3 C 65 % 0 lf 1011,2 hPa 0,0 l/m 2 min 0 min 313 W/m 27,2 km/h (4 Bft) 100,00 %
02.10.2017 16:58 19,6 C 21,1 C 18,3 C 66 % 0 lf 1011,2 hPa 0,0 l/m 2 min 0 min 249 W/m 31,4 km/h (5 Bft) 100,00 %
02.10.2017 17:00 19,6 C 20,6 C 18,3 C 66 % 0 lf 1011,2 hPa 0,0 l/m 2 min 0 min 257 W/m 27,2 km/h (4 Bft) 95,74 %
02.10.2017 17:02 19,6 C 20,6 C 18,3 C 65 % 0 lf 1011,2 hPa 0,0 l/m 2 min 0 min 246 W/m 23,0 km/h (4 Bft) 95,74 %
02.10.2017 17:04 19,6 C 20,0 C 18,3 C 66 % 0 lf 1011,2 hPa 0,0 l/m 2 min 0 min 242 W/m 31,4 km/h (5 Bft) 95,74 %
02.10.2017 17:06 19,5 C 19,4 C 17,8 C 66 % 0 lf 1011,2 hPa 0,0 l/m 2 min 0 min 154 W/m 27,2 km/h (4 Bft) 93,62 %
02.10.2017 17:08 19,5 C 19,4 C 17,8 C 66 % 0 lf 1011,3 hPa 0,0 l/m 0 min 0 min 130 W/m 16,7 km/h (3 Bft) 95,65 %
02.10.2017 17:10 19,4 C 19,4 C 17,8 C 67 % 0 lf 1011,2 hPa 0,0 l/m 0 min 0 min 105 W/m 16,7 km/h (3 Bft) 97,87 %
02.10.2017 17:12 19,4 C 18,9 C 17,2 C 67 % 0 lf 1011,2 hPa 0,0 l/m 0 min 0 min 102 W/m 20,9 km/h (4 Bft) 97,87 %
02.10.2017 17:14 19,3 C 18,9 C 17,2 C 67 % 0 lf 1011,2 hPa 0,0 l/m 0 min 0 min 98 W/m 16,7 km/h (3 Bft) 95,74 %
02.10.2017 17:16 19,2 C 18,9 C 17,2 C 67 % 0 lf 1011,2 hPa 0,0 l/m 0 min 0 min 102 W/m 18,8 km/h (3 Bft) 97,87 %
02.10.2017 17:18 19,2 C 18,9 C 17,2 C 68 % 0 lf 1011,2 hPa 0,0 l/m 0 min 0 min 111 W/m 18,8 km/h (3 Bft) 97,87 %
02.10.2017 17:20 19,1 C 18,9 C 17,2 C 68 % 0 lf 1011,2 hPa 0,0 l/m 0 min 0 min 107 W/m 12,6 km/h (3 Bft) 98,28 %
02.10.2017 17:22 19,1 C 18,9 C 17,2 C 68 % 0 lf 1011,2 hPa 0,0 l/m 0 min 0 min 113 W/m 10,5 km/h (2 Bft) 94,29 %
02.10.2017 17:24 19,1 C 19,4 C 17,8 C 69 % 0 lf 1011,1 hPa 0,0 l/m 2 min 0 min 154 W/m 12,6 km/h (3 Bft) 95,74 %
02.10.2017 17:26 19,0 C 19,4 C 17,8 C 69 % 0 lf 1011,2 hPa 0,0 l/m 2 min 0 min 194 W/m 14,6 km/h (3 Bft) 93,62 %
02.10.2017 17:28 18,9 C 19,4 C 17,8 C 69 % 0 lf 1011,2 hPa 0,0 l/m 2 min 0 min 182 W/m 16,7 km/h (3 Bft) 93,62 %
02.10.2017 17:30 18,9 C 19,4 C 17,2 C 69 % 0 lf 1011,2 hPa 0,0 l/m 0 min 0 min 109 W/m 12,6 km/h (3 Bft) 93,62 %
02.10.2017 17:32 18,9 C 18,9 C 17,2 C 69 % 0 lf 1011,2 hPa 0,0 l/m 0 min 0 min 90 W/m 16,7 km/h (3 Bft) 95,65 %
02.10.2017 17:34 18,9 C 18,9 C 17,2 C 69 % 0 lf 1011,3 hPa 0,0 l/m 0 min 0 min 96 W/m 16,7 km/h (3 Bft) 95,74 %
02.10.2017 17:36 18,8 C 18,9 C 17,2 C 69 % 0 lf 1011,3 hPa 0,0 l/m 0 min 0 min 96 W/m 16,7 km/h (3 Bft) 93,62 %
02.10.2017 17:38 18,8 C 18,3 C 17,2 C 69 % 0 lf 1011,2 hPa 0,0 l/m 0 min 0 min 87 W/m 12,6 km/h (3 Bft) 91,49 %
02.10.2017 17:40 18,8 C 18,3 C 16,7 C 69 % 0 lf 1011,3 hPa 0,0 l/m 0 min 0 min 86 W/m 12,6 km/h (3 Bft) 95,74 %
02.10.2017 17:42 18,8 C 18,3 C 16,7 C 70 % 0 lf 1011,4 hPa 0,0 l/m 0 min 0 min 96 W/m 12,6 km/h (3 Bft) 91,49 %
02.10.2017 17:44 18,7 C 18,3 C 16,7 C 70 % 0 lf 1011,3 hPa 0,0 l/m 2 min 0 min 104 W/m 12,6 km/h (3 Bft) 93,48 %
02.10.2017 17:46 18,7 C 18,3 C 16,7 C 70 % 0 lf 1011,4 hPa 0,0 l/m 0 min 0 min 91 W/m 23,0 km/h (4 Bft) 93,62 %
02.10.2017 17:48 18,6 C 18,3 C 16,7 C 70 % 0 lf 1011,4 hPa 0,0 l/m 0 min 0 min 76 W/m 18,8 km/h (3 Bft) 89,36 %
02.10.2017 17:50 18,6 C 18,3 C 16,7 C 70 % 0 lf 1011,4 hPa 0,0 l/m 0 min 0 min 68 W/m 16,7 km/h (3 Bft) 91,53 %
02.10.2017 17:52 18,6 C 18,3 C 16,7 C 70 % 0 lf 1011,3 hPa 0,0 l/m 0 min 0 min 64 W/m 20,9 km/h (4 Bft) 97,14 %
02.10.2017 17:54 18,5 C 18,3 C 16,7 C 70 % 0 lf 1011,3 hPa 0,0 l/m 0 min 0 min 63 W/m 18,8 km/h (3 Bft) 95,65 %
02.10.2017 17:56 18,4 C 18,3 C 16,7 C 70 % 0 lf 1011,4 hPa 0,0 l/m 0 min 0 min 66 W/m 16,7 km/h (3 Bft) 87,23 %
02.10.2017 17:58 18,4 C 18,3 C 16,7 C 71 % 0 lf 1011,4 hPa 0,0 l/m 0 min 0 min 65 W/m 20,9 km/h (4 Bft) 93,62 %
02.10.2017 18:00 18,4 C 18,3 C 16,7 C 71 % 0 lf 1011,4 hPa 0,0 l/m 0 min 0 min 63 W/m 12,6 km/h (3 Bft) 93,62 %
02.10.2017 18:02 18,3 C 18,3 C 16,7 C 71 % 0 lf 1011,4 hPa 0,0 l/m 0 min 0 min 71 W/m 20,9 km/h (4 Bft) 95,74 %
02.10.2017 18:04 18,3 C 18,3 C 16,7 C 71 % 0 lf 1011,4 hPa 0,0 l/m 0 min 0 min 73 W/m 12,6 km/h (3 Bft) 95,74 %
02.10.2017 18:06 18,3 C 17,8 C 16,7 C 71 % 0 lf 1011,4 hPa 0,0 l/m 0 min 0 min 68 W/m 10,5 km/h (2 Bft) 93,48 %
02.10.2017 18:10 18,3 C 17,8 C 16,7 C 72 % 0 lf 1011,4 hPa 0,0 l/m 0 min 0 min 60 W/m 14,6 km/h (3 Bft) 96,00 %
02.10.2017 18:12 18,2 C 17,8 C 16,7 C 72 % 0 lf 1011,4 hPa 0,0 l/m 0 min 0 min 44 W/m 14,6 km/h (3 Bft) 96,00 %
02.10.2017 18:14 18,2 C 17,8 C 16,7 C 72 % 0 lf 1011,4 hPa 0,0 l/m 0 min 0 min 45 W/m 12,6 km/h (3 Bft) 95,74 %
02.10.2017 18:16 18,2 C 17,8 C 16,7 C 72 % 0 lf 1011,5 hPa 0,0 l/m 0 min 0 min 48 W/m 18,8 km/h (3 Bft) 97,87 %
02.10.2017 18:18 18,1 C 17,8 C 16,7 C 72 % 0 lf 1011,5 hPa 0,0 l/m 0 min 0 min 46 W/m 20,9 km/h (4 Bft) 95,65 %
02.10.2017 18:20 18,1 C 17,8 C 16,7 C 71 % 0 lf 1011,5 hPa 0,0 l/m 0 min 0 min 44 W/m 18,8 km/h (3 Bft) 95,74 %
02.10.2017 18:22 18,1 C 17,8 C 16,1 C 71 % 0 lf 1011,6 hPa 0,0 l/m 0 min 0 min 42 W/m 20,9 km/h (4 Bft) 95,74 %
02.10.2017 18:24 18,0 C 17,8 C 16,1 C 71 % 0 lf 1011,6 hPa 0,0 l/m 0 min 0 min 45 W/m 20,9 km/h (4 Bft) 93,62 %
02.10.2017 18:26 18,0 C 17,8 C 16,7 C 71 % 0 lf 1011,5 hPa 0,0 l/m 0 min 0 min 48 W/m 14,6 km/h (3 Bft) 95,74 %
02.10.2017 18:28 17,9 C 17,8 C 16,1 C 72 % 0 lf 1011,5 hPa 0,0 l/m 0 min 0 min 42 W/m 18,8 km/h (3 Bft) 95,74 %
02.10.2017 18:30 17,9 C 17,8 C 16,1 C 72 % 0 lf 1011,7 hPa 0,0 l/m 0 min 0 min 39 W/m 14,6 km/h (3 Bft) 95,65 %
02.10.2017 18:32 17,9 C 17,8 C 16,1 C 71 % 0 lf 1011,6 hPa 0,0 l/m 0 min 0 min 40 W/m 16,7 km/h (3 Bft) 95,74 %
02.10.2017 18:34 17,9 C 17,8 C 16,1 C 71 % 0 lf 1011,5 hPa 0,0 l/m 2 min 0 min 42 W/m 25,1 km/h (4 Bft) 95,74 %
02.10.2017 18:36 17,9 C 17,8 C 16,1 C 71 % 0 lf 1011,5 hPa 0,0 l/m 2 min 0 min 46 W/m 20,9 km/h (4 Bft) 95,74 %
02.10.2017 18:38 17,8 C 17,8 C 16,1 C 71 % 0 lf 1011,6 hPa 0,0 l/m 2 min 0 min 47 W/m 25,1 km/h (4 Bft) 100,00 %
02.10.2017 18:40 17,8 C 17,8 C 16,1 C 71 % 0 lf 1011,5 hPa 0,0 l/m 2 min 0 min 40 W/m 29,3 km/h (5 Bft) 93,48 %
02.10.2017 18:42 17,8 C 17,8 C 16,1 C 71 % 0 lf 1011,6 hPa 0,0 l/m 2 min 0 min 35 W/m 25,1 km/h (4 Bft) 97,87 %
02.10.2017 18:44 17,8 C 17,8 C 16,1 C 71 % 0 lf 1011,6 hPa 0,0 l/m 2 min 0 min 33 W/m 33,5 km/h (5 Bft) 97,87 %
02.10.2017 18:46 17,8 C 17,2 C 16,1 C 71 % 0 lf 1011,5 hPa 0,0 l/m 2 min 0 min 31 W/m 25,1 km/h (4 Bft) 97,87 %
02.10.2017 18:48 17,8 C 17,2 C 15,6 C 71 % 0 lf 1011,6 hPa 0,0 l/m 2 min 0 min 27 W/m 25,1 km/h (4 Bft) 97,87 %
02.10.2017 18:50 17,7 C 17,2 C 15,6 C 71 % 0 lf 1011,6 hPa 0,0 l/m 2 min 0 min 26 W/m 27,2 km/h (4 Bft) 95,74 %
02.10.2017 18:52 17,7 C 17,2 C 15,6 C 71 % 0 lf 1011,5 hPa 0,0 l/m 2 min 0 min 25 W/m 16,7 km/h (3 Bft) 93,48 %
02.10.2017 18:54 17,7 C 17,2 C 15,6 C 71 % 0 lf 1011,6 hPa 0,0 l/m 2 min 0 min 24 W/m 20,9 km/h (4 Bft) 100,00 %
02.10.2017 18:56 17,6 C 17,2 C 15,6 C 71 % 0 lf 1011,5 hPa 0,0 l/m 2 min 0 min 22 W/m 18,8 km/h (3 Bft) 97,87 %
02.10.2017 18:58 17,6 C 17,2 C 15,6 C 71 % 0 lf 1011,6 hPa 0,0 l/m 2 min 0 min 21 W/m 23,0 km/h (4 Bft) 100,00 %
02.10.2017 19:00 17,6 C 17,2 C 15,6 C 71 % 0 lf 1011,6 hPa 0,0 l/m 0 min 0 min 19 W/m 18,8 km/h (3 Bft) 100,00 %
02.10.2017 19:02 17,6 C 17,2 C 15,6 C 71 % 0 lf 1011,6 hPa 0,0 l/m 0 min 0 min 19 W/m 16,7 km/h (3 Bft) 100,00 %
02.10.2017 19:04 17,5 C 17,2 C 15,6 C 71 % 0 lf 1011,6 hPa 0,0 l/m 0 min 0 min 19 W/m 16,7 km/h (3 Bft) 100,00 %
02.10.2017 19:06 17,5 C 16,7 C 15,6 C 71 % 0 lf 1011,6 hPa 0,0 l/m 0 min 0 min 18 W/m 8,4 km/h (2 Bft) 97,87 %
02.10.2017 19:08 17,5 C 16,7 C 15,0 C 71 % 0 lf 1011,6 hPa 0,0 l/m 0 min 0 min 15 W/m 8,4 km/h (2 Bft) 100,00 %
02.10.2017 19:10 17,4 C 16,7 C 15,0 C 72 % 0 lf 1011,8 hPa 0,0 l/m 0 min 0 min 13 W/m 12,6 km/h (3 Bft) 97,87 %
02.10.2017 19:12 17,4 C 16,7 C 15,0 C 72 % 0 lf 1011,8 hPa 0,0 l/m 0 min 0 min 12 W/m 14,6 km/h (3 Bft) 97,87 %
02.10.2017 19:14 17,4 C 16,7 C 15,0 C 71 % 0 lf 1011,7 hPa 0,0 l/m 0 min 0 min 11 W/m 12,6 km/h (3 Bft) 100,00 %
02.10.2017 19:16 17,4 C 16,7 C 15,0 C 72 % 0 lf 1011,8 hPa 0,0 l/m 0 min 0 min 11 W/m 10,5 km/h (2 Bft) 97,83 %
02.10.2017 19:18 17,3 C 16,7 C 15,0 C 72 % 0 lf 1011,8 hPa 0,0 l/m 0 min 0 min 11 W/m 12,6 km/h (3 Bft) 97,87 %
02.10.2017 19:20 17,3 C 16,7 C 15,0 C 72 % 0 lf 1011,9 hPa 0,0 l/m 0 min 0 min 11 W/m 12,6 km/h (3 Bft) 100,00 %
02.10.2017 19:22 17,3 C 16,7 C 15,0 C 72 % 0 lf 1011,9 hPa 0,0 l/m 0 min 0 min 10 W/m 10,5 km/h (2 Bft) 95,74 %
02.10.2017 19:24 17,2 C 16,7 C 15,0 C 72 % 0 lf 1011,9 hPa 0,0 l/m 0 min 0 min 0 W/m 14,6 km/h (3 Bft) 100,00 %
02.10.2017 19:26 17,2 C 16,7 C 15,0 C 72 % 0 lf 1012,0 hPa 0,0 l/m 0 min 0 min 0 W/m 10,5 km/h (2 Bft) 100,00 %
02.10.2017 19:28 17,2 C 16,7 C 15,0 C 72 % 0 lf 1011,9 hPa 0,0 l/m 0 min 0 min 0 W/m 10,5 km/h (2 Bft) 100,00 %
02.10.2017 19:30 17,2 C 16,7 C 15,0 C 72 % 0 lf 1012,0 hPa 0,0 l/m 0 min 0 min 0 W/m 16,7 km/h (3 Bft) 100,00 %
02.10.2017 19:32 17,2 C 16,7 C 15,0 C 72 % 0 lf 1011,9 hPa 0,0 l/m 0 min 0 min 0 W/m 20,9 km/h (4 Bft) 97,87 %
02.10.2017 19:34 17,1 C 16,7 C 15,0 C 72 % 0 lf 1011,9 hPa 0,0 l/m 0 min 0 min 0 W/m 18,8 km/h (3 Bft) 95,74 %
02.10.2017 19:36 17,1 C 16,7 C 15,0 C 72 % 0 lf 1011,9 hPa 0,0 l/m 0 min 0 min 0 W/m 12,6 km/h (3 Bft) 100,00 %
02.10.2017 19:38 17,1 C 16,7 C 15,0 C 72 % 0 lf 1011,9 hPa 0,0 l/m 0 min 0 min 0 W/m 16,7 km/h (3 Bft) 100,00 %
02.10.2017 19:40 17,1 C 16,7 C 15,0 C 72 % 0 lf 1011,9 hPa 0,0 l/m 0 min 0 min 0 W/m 14,6 km/h (3 Bft) 100,00 %
02.10.2017 19:42 17,0 C 16,7 C 15,0 C 72 % 0 lf 1012,0 hPa 0,0 l/m 0 min 0 min 0 W/m 16,7 km/h (3 Bft) 100,00 %
02.10.2017 19:44 17,0 C 16,7 C 15,0 C 72 % 2 lf 1012,0 hPa 0,0 l/m 0 min 0 min 0 W/m 20,9 km/h (4 Bft) 97,87 %
02.10.2017 19:46 16,9 C 16,7 C 15,0 C 72 % 1 lf 1012,0 hPa 0,0 l/m 0 min 2 min 0 W/m 18,8 km/h (3 Bft) 95,74 %
02.10.2017 19:48 16,9 C 16,7 C 15,0 C 72 % 0 lf 1012,0 hPa 0,0 l/m 0 min 0 min 0 W/m 16,7 km/h (3 Bft) 100,00 %
02.10.2017 19:50 16,9 C 16,7 C 15,0 C 72 % 0 lf 1012,0 hPa 0,0 l/m 0 min 0 min 0 W/m 18,8 km/h (3 Bft) 97,83 %
02.10.2017 19:52 16,9 C 16,1 C 15,0 C 72 % 0 lf 1011,8 hPa 0,0 l/m 0 min 0 min 0 W/m 18,8 km/h (3 Bft) 97,87 %
02.10.2017 19:54 16,9 C 16,1 C 15,0 C 73 % 0 lf 1011,9 hPa 0,0 l/m 0 min 0 min 5 W/m 10,5 km/h (2 Bft) 100,00 %
02.10.2017 19:56 16,8 C 16,1 C 15,0 C 72 % 0 lf 1011,9 hPa 0,0 l/m 0 min 0 min 5 W/m 23,0 km/h (4 Bft) 100,00 %
02.10.2017 19:58 16,8 C 16,1 C 15,0 C 72 % 0 lf 1012,0 hPa 0,0 l/m 0 min 0 min 5 W/m 16,7 km/h (3 Bft) 95,74 %
02.10.2017 20:00 16,8 C 16,1 C 15,0 C 73 % 0 lf 1012,0 hPa 0,0 l/m 0 min 0 min 5 W/m 20,9 km/h (4 Bft) 100,00 %
02.10.2017 20:02 16,8 C 16,1 C 15,0 C 73 % 0 lf 1012,0 hPa 0,0 l/m 0 min 0 min 5 W/m 14,6 km/h (3 Bft) 95,65 %
02.10.2017 20:04 16,8 C 16,1 C 15,0 C 73 % 0 lf 1012,0 hPa 0,0 l/m 0 min 0 min 5 W/m 10,5 km/h (2 Bft) 97,87 %
02.10.2017 20:06 16,8 C 16,1 C 15,0 C 73 % 0 lf 1012,1 hPa 0,0 l/m 0 min 0 min 5 W/m 12,6 km/h (3 Bft) 95,74 %
02.10.2017 20:08 16,7 C 16,1 C 15,0 C 73 % 0 lf 1012,1 hPa 0,0 l/m 0 min 0 min 5 W/m 16,7 km/h (3 Bft) 97,87 %
02.10.2017 20:10 16,7 C 16,1 C 15,0 C 73 % 0 lf 1012,0 hPa 0,0 l/m 0 min 0 min 0 W/m 18,8 km/h (3 Bft) 93,62 %
02.10.2017 20:12 16,7 C 16,1 C 15,0 C 73 % 0 lf 1012,0 hPa 0,0 l/m 0 min 0 min 5 W/m 12,6 km/h (3 Bft) 97,87 %
02.10.2017 20:14 16,7 C 16,1 C 14,4 C 74 % 0 lf 1012,0 hPa 0,0 l/m 0 min 0 min 5 W/m 12,6 km/h (3 Bft) 97,87 %
02.10.2017 20:16 16,7 C 16,1 C 15,0 C 74 % 0 lf 1012,0 hPa 0,0 l/m 0 min 0 min 5 W/m 14,6 km/h (3 Bft) 91,30 %
02.10.2017 20:18 16,6 C 16,1 C 15,0 C 74 % 0 lf 1012,1 hPa 0,0 l/m 0 min 0 min 5 W/m 8,4 km/h (2 Bft) 93,62 %
02.10.2017 20:20 16,6 C 16,1 C 14,4 C 74 % 0 lf 1012,0 hPa 0,0 l/m 0 min 0 min 5 W/m 10,5 km/h (2 Bft) 95,74 %
02.10.2017 20:22 16,6 C 16,1 C 14,4 C 74 % 0 lf 1012,1 hPa 0,0 l/m 0 min 0 min 5 W/m 14,6 km/h (3 Bft) 91,49 %
02.10.2017 20:24 16,6 C 16,1 C 14,4 C 74 % 0 lf 1012,0 hPa 0,0 l/m 0 min 0 min 5 W/m 12,6 km/h (3 Bft) 91,49 %
02.10.2017 20:26 16,6 C 16,1 C 14,4 C 74 % 0 lf 1012,1 hPa 0,0 l/m 0 min 0 min 5 W/m 10,5 km/h (2 Bft) 93,48 %
02.10.2017 20:28 16,6 C 16,1 C 14,4 C 75 % 0 lf 1012,2 hPa 0,0 l/m 0 min 0 min 5 W/m 14,6 km/h (3 Bft) 91,49 %
02.10.2017 20:30 16,5 C 16,1 C 14,4 C 75 % 0 lf 1012,2 hPa 0,0 l/m 0 min 0 min 5 W/m 10,5 km/h (2 Bft) 87,23 %
02.10.2017 20:32 16,5 C 16,1 C 14,4 C 75 % 0 lf 1012,1 hPa 0,0 l/m 0 min 0 min 5 W/m 6,3 km/h (2 Bft) 91,49 %
02.10.2017 20:34 16,5 C 16,1 C 14,4 C 75 % 0 lf 1012,1 hPa 0,0 l/m 0 min 0 min 5 W/m 10,5 km/h (2 Bft) 93,62 %
02.10.2017 20:36 16,5 C 16,1 C 14,4 C 75 % 0 lf 1012,1 hPa 0,0 l/m 0 min 0 min 5 W/m 8,4 km/h (2 Bft) 91,49 %
02.10.2017 20:38 16,4 C 16,1 C 14,4 C 75 % 0 lf 1012,1 hPa 0,0 l/m 0 min 0 min 5 W/m 10,5 km/h (2 Bft) 93,48 %
02.10.2017 20:40 16,4 C 15,6 C 14,4 C 76 % 0 lf 1012,1 hPa 0,0 l/m 0 min 0 min 5 W/m 12,6 km/h (3 Bft) 91,49 %
02.10.2017 20:42 16,4 C 15,6 C 14,4 C 76 % 1 lf 1012,1 hPa 0,0 l/m 0 min 0 min 5 W/m 12,6 km/h (3 Bft) 93,62 %
02.10.2017 20:44 16,4 C 15,6 C 14,4 C 76 % 7 lf 1012,2 hPa 0,0 l/m 0 min 2 min 5 W/m 16,7 km/h (3 Bft) 87,23 %
02.10.2017 20:46 16,4 C 15,6 C 14,4 C 76 % 3 lf 1012,2 hPa 0,0 l/m 0 min 2 min 5 W/m 18,8 km/h (3 Bft) 91,49 %
02.10.2017 20:48 16,4 C 15,6 C 13,9 C 76 % 0 lf 1012,2 hPa 0,0 l/m 0 min 2 min 5 W/m 16,7 km/h (3 Bft) 91,49 %
02.10.2017 20:50 16,3 C 16,1 C 14,4 C 76 % 0 lf 1012,3 hPa 0,0 l/m 0 min 0 min 5 W/m 23,0 km/h (4 Bft) 93,48 %
02.10.2017 20:52 16,3 C 16,1 C 14,4 C 76 % 0 lf 1012,2 hPa 0,0 l/m 0 min 0 min 5 W/m 18,8 km/h (3 Bft) 95,74 %
02.10.2017 20:54 16,3 C 16,1 C 14,4 C 76 % 0 lf 1012,3 hPa 0,0 l/m 0 min 0 min 5 W/m 20,9 km/h (4 Bft) 95,74 %
02.10.2017 20:56 16,3 C 15,6 C 14,4 C 76 % 0 lf 1012,4 hPa 0,0 l/m 0 min 0 min 5 W/m 10,5 km/h (2 Bft) 95,74 %
02.10.2017 20:58 16,3 C 15,6 C 14,4 C 76 % 0 lf 1012,4 hPa 0,0 l/m 0 min 0 min 0 W/m 14,6 km/h (3 Bft) 97,87 %
02.10.2017 21:00 16,2 C 15,6 C 14,4 C 76 % 0 lf 1012,4 hPa 0,0 l/m 0 min 0 min 5 W/m 12,6 km/h (3 Bft) 91,49 %
02.10.2017 21:02 16,2 C 15,6 C 14,4 C 76 % 0 lf 1012,3 hPa 0,0 l/m 0 min 0 min 5 W/m 14,6 km/h (3 Bft) 95,65 %
02.10.2017 21:04 16,2 C 15,6 C 14,4 C 76 % 0 lf 1012,4 hPa 0,0 l/m 0 min 0 min 5 W/m 20,9 km/h (4 Bft) 95,74 %
02.10.2017 21:06 16,2 C 15,6 C 14,4 C 76 % 0 lf 1012,5 hPa 0,0 l/m 0 min 0 min 3 W/m 14,6 km/h (3 Bft) 95,74 %
02.10.2017 21:08 16,2 C 15,6 C 14,4 C 76 % 0 lf 1012,5 hPa 0,0 l/m 0 min 0 min 0 W/m 12,6 km/h (3 Bft) 93,62 %
02.10.2017 21:10 16,1 C 15,6 C 14,4 C 77 % 0 lf 1012,5 hPa 0,0 l/m 0 min 0 min 2 W/m 16,7 km/h (3 Bft) 95,74 %
02.10.2017 21:12 16,1 C 15,6 C 14,4 C 76 % 0 lf 1012,3 hPa 0,0 l/m 0 min 0 min 2 W/m 12,6 km/h (3 Bft) 91,49 %
02.10.2017 21:14 16,1 C 15,6 C 14,4 C 76 % 0 lf 1012,2 hPa 0,0 l/m 0 min 0 min 4 W/m 10,5 km/h (2 Bft) 95,65 %
02.10.2017 21:16 16,1 C 15,6 C 14,4 C 77 % 0 lf 1012,3 hPa 0,0 l/m 0 min 0 min 3 W/m 14,6 km/h (3 Bft) 95,74 %
02.10.2017 21:18 16,1 C 15,6 C 14,4 C 77 % 0 lf 1012,3 hPa 0,0 l/m 0 min 0 min 3 W/m 14,6 km/h (3 Bft) 97,87 %
02.10.2017 21:20 16,1 C 15,6 C 14,4 C 77 % 0 lf 1012,3 hPa 0,0 l/m 0 min 0 min 5 W/m 8,4 km/h (2 Bft) 95,74 %
02.10.2017 21:22 16,1 C 15,6 C 14,4 C 77 % 0 lf 1012,3 hPa 0,0 l/m 0 min 0 min 5 W/m 12,6 km/h (3 Bft) 95,74 %
02.10.2017 21:24 16,1 C 15,6 C 14,4 C 77 % 0 lf 1012,2 hPa 0,0 l/m 0 min 0 min 1 W/m 12,6 km/h (3 Bft) 95,74 %
02.10.2017 21:26 16,0 C 15,6 C 14,4 C 77 % 0 lf 1012,2 hPa 0,0 l/m 0 min 0 min 0 W/m 12,6 km/h (3 Bft) 95,65 %
02.10.2017 21:28 16,0 C 15,6 C 13,9 C 77 % 0 lf 1012,3 hPa 0,0 l/m 0 min 0 min 0 W/m 14,6 km/h (3 Bft) 97,87 %
02.10.2017 21:30 16,0 C 15,6 C 13,9 C 77 % 0 lf 1012,2 hPa 0,0 l/m 0 min 0 min 0 W/m 12,6 km/h (3 Bft) 93,62 %
02.10.2017 21:32 16,0 C 15,6 C 13,9 C 78 % 0 lf 1012,2 hPa 0,0 l/m 0 min 0 min 0 W/m 18,8 km/h (3 Bft) 100,00 %
02.10.2017 21:34 15,9 C 15,6 C 13,9 C 78 % 0 lf 1012,3 hPa 0,0 l/m 0 min 0 min 0 W/m 16,7 km/h (3 Bft) 100,00 %
02.10.2017 21:36 15,9 C 15,6 C 13,9 C 78 % 0 lf 1012,2 hPa 0,0 l/m 0 min 0 min 0 W/m 14,6 km/h (3 Bft) 100,00 %
02.10.2017 21:38 15,9 C 15,6 C 13,9 C 78 % 0 lf 1012,3 hPa 0,0 l/m 0 min 0 min 0 W/m 12,6 km/h (3 Bft) 100,00 %
02.10.2017 21:40 15,9 C 15,6 C 13,9 C 78 % 0 lf 1012,2 hPa 0,0 l/m 0 min 0 min 0 W/m 12,6 km/h (3 Bft) 95,74 %
02.10.2017 21:42 15,9 C 15,6 C 13,9 C 78 % 0 lf 1012,2 hPa 0,0 l/m 0 min 0 min 0 W/m 20,9 km/h (4 Bft) 95,74 %
02.10.2017 21:44 15,9 C 15,6 C 13,9 C 78 % 0 lf 1012,2 hPa 0,0 l/m 0 min 0 min 0 W/m 18,8 km/h (3 Bft) 100,00 %
02.10.2017 21:46 15,8 C 15,6 C 13,9 C 78 % 0 lf 1012,1 hPa 0,0 l/m 0 min 0 min 0 W/m 14,6 km/h (3 Bft) 100,00 %
02.10.2017 21:48 15,8 C 15,6 C 13,9 C 78 % 0 lf 1012,1 hPa 0,0 l/m 0 min 0 min 0 W/m 25,1 km/h (4 Bft) 100,00 %
02.10.2017 21:50 15,8 C 15,6 C 13,9 C 78 % 0 lf 1012,1 hPa 0,0 l/m 0 min 0 min 0 W/m 16,7 km/h (3 Bft) 100,00 %
02.10.2017 21:52 15,8 C 15,6 C 13,9 C 79 % 0 lf 1012,1 hPa 0,0 l/m 0 min 0 min 0 W/m 25,1 km/h (4 Bft) 100,00 %
02.10.2017 21:54 15,8 C 15,6 C 13,9 C 79 % 0 lf 1012,0 hPa 0,0 l/m 0 min 0 min 0 W/m 18,8 km/h (3 Bft) 97,87 %
02.10.2017 21:56 15,8 C 15,6 C 13,9 C 78 % 0 lf 1012,1 hPa 0,0 l/m 0 min 0 min 3 W/m 23,0 km/h (4 Bft) 97,87 %
02.10.2017 21:58 15,8 C 15,6 C 13,9 C 78 % 0 lf 1012,0 hPa 0,0 l/m 0 min 0 min 5 W/m 16,7 km/h (3 Bft) 100,00 %
02.10.2017 22:00 15,7 C 15,6 C 13,9 C 79 % 0 lf 1012,1 hPa 0,0 l/m 0 min 0 min 5 W/m 20,9 km/h (4 Bft) 97,83 %
02.10.2017 22:02 15,7 C 15,6 C 13,9 C 79 % 0 lf 1012,0 hPa 0,0 l/m 0 min 0 min 5 W/m 20,9 km/h (4 Bft) 100,00 %
02.10.2017 22:04 15,7 C 15,6 C 13,9 C 79 % 0 lf 1012,1 hPa 0,0 l/m 0 min 0 min 5 W/m 16,7 km/h (3 Bft) 95,74 %
02.10.2017 22:06 15,7 C 15,0 C 13,9 C 79 % 0 lf 1012,1 hPa 0,0 l/m 0 min 0 min 5 W/m 12,6 km/h (3 Bft) 100,00 %
02.10.2017 22:08 15,7 C 15,0 C 13,9 C 79 % 0 lf 1012,1 hPa 0,0 l/m 0 min 0 min 5 W/m 14,6 km/h (3 Bft) 100,00 %
02.10.2017 22:10 15,7 C 15,0 C 13,9 C 79 % 0 lf 1012,1 hPa 0,0 l/m 0 min 0 min 5 W/m 16,7 km/h (3 Bft) 100,00 %
02.10.2017 22:12 15,7 C 15,0 C 13,9 C 80 % 0 lf 1012,2 hPa 0,0 l/m 0 min 0 min 5 W/m 20,9 km/h (4 Bft) 100,00 %
02.10.2017 22:14 15,7 C 15,0 C 13,9 C 80 % 0 lf 1012,3 hPa 0,0 l/m 0 min 0 min 5 W/m 12,6 km/h (3 Bft) 97,87 %
02.10.2017 22:16 15,6 C 15,0 C 13,9 C 80 % 0 lf 1012,2 hPa 0,0 l/m 0 min 0 min 5 W/m 20,9 km/h (4 Bft) 97,87 %
02.10.2017 22:18 15,6 C 15,0 C 13,9 C 80 % 0 lf 1012,2 hPa 0,0 l/m 0 min 0 min 5 W/m 23,0 km/h (4 Bft) 97,87 %
02.10.2017 22:20 15,6 C 15,0 C 13,9 C 80 % 0 lf 1012,2 hPa 0,0 l/m 0 min 0 min 5 W/m 18,8 km/h (3 Bft) 97,87 %
02.10.2017 22:22 15,6 C 15,0 C 13,9 C 80 % 0 lf 1012,2 hPa 0,0 l/m 0 min 0 min 5 W/m 27,2 km/h (4 Bft) 95,74 %
02.10.2017 22:24 15,6 C 15,0 C 13,9 C 80 % 0 lf 1012,2 hPa 0,0 l/m 0 min 0 min 5 W/m 27,2 km/h (4 Bft) 97,83 %
02.10.2017 22:26 15,5 C 15,0 C 13,9 C 80 % 0 lf 1012,1 hPa 0,0 l/m 0 min 0 min 5 W/m 23,0 km/h (4 Bft) 93,62 %
02.10.2017 22:28 15,5 C 15,0 C 13,9 C 80 % 0 lf 1012,1 hPa 0,0 l/m 0 min 0 min 5 W/m 16,7 km/h (3 Bft) 97,87 %
02.10.2017 22:30 15,4 C 14,4 C 13,9 C 80 % 4 lf 1012,2 hPa 0,0 l/m 0 min 2 min 3 W/m 23,0 km/h (4 Bft) 93,62 %
02.10.2017 22:32 15,4 C 14,4 C 13,3 C 80 % 4 lf 1012,2 hPa 0,0 l/m 0 min 2 min 3 W/m 25,1 km/h (4 Bft) 93,62 %
02.10.2017 22:34 15,4 C 14,4 C 13,3 C 80 % 13 lf 1012,2 hPa 0,0 l/m 0 min 2 min 5 W/m 27,2 km/h (4 Bft) 95,83 %
02.10.2017 22:36 15,3 C 13,9 C 12,8 C 81 % 15 lf 1012,3 hPa 0,0 l/m 0 min 2 min 5 W/m 29,3 km/h (5 Bft) 95,74 %
02.10.2017 22:38 15,3 C 13,9 C 12,2 C 81 % 15 lf 1012,3 hPa 0,0 l/m 0 min 2 min 4 W/m 29,3 km/h (5 Bft) 97,87 %
02.10.2017 22:40 15,3 C 13,9 C 12,2 C 81 % 15 lf 1012,4 hPa 0,0 l/m 0 min 2 min 0 W/m 29,3 km/h (5 Bft) 93,62 %
02.10.2017 22:42 15,2 C 13,9 C 12,2 C 82 % 15 lf 1012,4 hPa 0,2 l/m 0 min 2 min 0 W/m 31,4 km/h (5 Bft) 97,87 %
02.10.2017 22:44 15,2 C 13,3 C 11,7 C 82 % 15 lf 1012,4 hPa 0,0 l/m 0 min 2 min 3 W/m 23,0 km/h (4 Bft) 97,87 %
02.10.2017 22:46 15,1 C 13,3 C 11,7 C 83 % 15 lf 1012,3 hPa 0,0 l/m 0 min 2 min 5 W/m 25,1 km/h (4 Bft) 95,65 %
02.10.2017 22:48 15,0 C 13,3 C 11,7 C 83 % 15 lf 1012,4 hPa 0,0 l/m 0 min 2 min 1 W/m 23,0 km/h (4 Bft) 97,87 %
02.10.2017 22:50 14,9 C 13,3 C 11,7 C 83 % 15 lf 1012,5 hPa 0,2 l/m 0 min 2 min 5 W/m 16,7 km/h (3 Bft) 100,00 %
02.10.2017 22:52 14,9 C 13,3 C 11,7 C 84 % 15 lf 1012,5 hPa 0,0 l/m 0 min 2 min 5 W/m 16,7 km/h (3 Bft) 97,87 %
02.10.2017 22:54 14,8 C 13,3 C 11,7 C 84 % 15 lf 1012,5 hPa 0,0 l/m 0 min 2 min 5 W/m 27,2 km/h (4 Bft) 95,74 %
02.10.2017 22:56 14,8 C 13,3 C 11,7 C 85 % 15 lf 1012,5 hPa 0,0 l/m 0 min 2 min 5 W/m 14,6 km/h (3 Bft) 97,87 %
02.10.2017 22:58 14,7 C 12,8 C 11,7 C 85 % 15 lf 1012,5 hPa 0,2 l/m 0 min 2 min 5 W/m 14,6 km/h (3 Bft) 97,83 %
02.10.2017 23:00 14,7 C 12,8 C 11,7 C 85 % 15 lf 1012,4 hPa 0,0 l/m 0 min 2 min 0 W/m 12,6 km/h (3 Bft) 97,87 %
02.10.2017 23:02 14,6 C 12,8 C 11,7 C 86 % 15 lf 1012,5 hPa 0,0 l/m 0 min 2 min 0 W/m 14,6 km/h (3 Bft) 93,62 %
02.10.2017 23:04 14,5 C 12,8 C 11,7 C 86 % 15 lf 1012,5 hPa 0,0 l/m 0 min 2 min 0 W/m 18,8 km/h (3 Bft) 95,74 %
02.10.2017 23:06 14,4 C 12,2 C 11,7 C 86 % 15 lf 1012,5 hPa 0,0 l/m 0 min 2 min 0 W/m 12,6 km/h (3 Bft) 97,87 %
02.10.2017 23:08 14,4 C 12,2 C 11,7 C 87 % 15 lf 1012,5 hPa 0,2 l/m 0 min 2 min 0 W/m 10,5 km/h (2 Bft) 97,87 %
02.10.2017 23:10 14,3 C 12,2 C 11,7 C 87 % 15 lf 1012,6 hPa 0,0 l/m 0 min 2 min 0 W/m 14,6 km/h (3 Bft) 97,83 %
02.10.2017 23:12 14,2 C 12,2 C 11,7 C 88 % 15 lf 1012,6 hPa 0,2 l/m 0 min 2 min 0 W/m 16,7 km/h (3 Bft) 97,87 %
02.10.2017 23:14 14,2 C 12,2 C 11,7 C 88 % 15 lf 1012,6 hPa 0,0 l/m 0 min 2 min 0 W/m 16,7 km/h (3 Bft) 95,74 %
02.10.2017 23:16 14,2 C 12,2 C 11,7 C 88 % 15 lf 1012,6 hPa 0,0 l/m 0 min 2 min 0 W/m 16,7 km/h (3 Bft) 95,74 %
02.10.2017 23:18 14,2 C 12,2 C 11,7 C 89 % 15 lf 1012,6 hPa 0,0 l/m 0 min 2 min 0 W/m 14,6 km/h (3 Bft) 97,87 %
02.10.2017 23:20 14,2 C 12,2 C 11,7 C 89 % 15 lf 1012,6 hPa 0,0 l/m 0 min 2 min 5 W/m 14,6 km/h (3 Bft) 95,74 %
02.10.2017 23:22 14,1 C 12,2 C 11,7 C 89 % 15 lf 1012,5 hPa 0,0 l/m 0 min 2 min 5 W/m 16,7 km/h (3 Bft) 95,65 %
02.10.2017 23:24 14,1 C 12,2 C 11,7 C 89 % 15 lf 1012,5 hPa 0,0 l/m 0 min 2 min 5 W/m 16,7 km/h (3 Bft) 97,87 %
02.10.2017 23:26 14,0 C 12,2 C 11,7 C 90 % 15 lf 1012,5 hPa 0,2 l/m 0 min 2 min 5 W/m 20,9 km/h (4 Bft) 95,74 %
02.10.2017 23:28 13,9 C 12,2 C 11,7 C 90 % 15 lf 1012,5 hPa 0,0 l/m 0 min 2 min 5 W/m 18,8 km/h (3 Bft) 95,74 %
02.10.2017 23:30 13,9 C 12,2 C 11,7 C 90 % 15 lf 1012,5 hPa 0,0 l/m 0 min 2 min 5 W/m 12,6 km/h (3 Bft) 97,87 %
02.10.2017 23:32 13,8 C 12,2 C 11,7 C 90 % 15 lf 1012,5 hPa 0,2 l/m 0 min 2 min 5 W/m 18,8 km/h (3 Bft) 95,65 %
02.10.2017 23:34 13,8 C 12,2 C 11,7 C 91 % 15 lf 1012,5 hPa 0,0 l/m 0 min 2 min 5 W/m 12,6 km/h (3 Bft) 95,74 %
02.10.2017 23:36 13,8 C 12,2 C 11,7 C 91 % 15 lf 1012,5 hPa 0,0 l/m 0 min 2 min 5 W/m 12,6 km/h (3 Bft) 95,74 %
02.10.2017 23:38 13,8 C 12,2 C 11,7 C 91 % 15 lf 1012,5 hPa 0,0 l/m 0 min 2 min 5 W/m 8,4 km/h (2 Bft) 93,62 %
02.10.2017 23:40 13,8 C 12,2 C 11,7 C 91 % 15 lf 1012,5 hPa 0,0 l/m 0 min 2 min 5 W/m 12,6 km/h (3 Bft) 91,49 %
02.10.2017 23:42 13,7 C 12,2 C 11,7 C 91 % 15 lf 1012,5 hPa 0,0 l/m 0 min 2 min 5 W/m 20,9 km/h (4 Bft) 97,87 %
02.10.2017 23:44 13,7 C 12,2 C 11,7 C 91 % 15 lf 1012,5 hPa 0,0 l/m 0 min 2 min 5 W/m 12,6 km/h (3 Bft) 93,48 %
02.10.2017 23:46 13,7 C 12,2 C 11,7 C 92 % 15 lf 1012,5 hPa 0,0 l/m 0 min 2 min 5 W/m 16,7 km/h (3 Bft) 95,74 %
02.10.2017 23:48 13,6 C 12,2 C 11,7 C 92 % 15 lf 1012,5 hPa 0,0 l/m 0 min 2 min 5 W/m 12,6 km/h (3 Bft) 95,74 %
02.10.2017 23:50 13,6 C 12,2 C 11,7 C 92 % 15 lf 1012,4 hPa 0,0 l/m 0 min 2 min 5 W/m 16,7 km/h (3 Bft) 95,74 %
02.10.2017 23:52 13,6 C 12,2 C 11,7 C 92 % 15 lf 1012,4 hPa 0,0 l/m 0 min 0 min 5 W/m 23,0 km/h (4 Bft) 95,74 %
02.10.2017 23:54 13,6 C 12,2 C 11,7 C 92 % 15 lf 1012,4 hPa 0,0 l/m 0 min 0 min 0 W/m 20,9 km/h (4 Bft) 97,87 %
02.10.2017 23:56 13,5 C 12,2 C 11,7 C 92 % 15 lf 1012,5 hPa 0,0 l/m 0 min 0 min 0 W/m 16,7 km/h (3 Bft) 95,65 %
02.10.2017 23:58 13,5 C 12,2 C 11,7 C 92 % 15 lf 1012,5 hPa 0,0 l/m 0 min 0 min 0 W/m 10,5 km/h (2 Bft) 95,74 %
_ Min-Zeit 23:56 23:06 03:44 16:34 00:00 11:58 - - - - 03:58 00:12
Minimum _ 13,5 C 12,2 C 11,7 C 63 % 0 lf 1011,0 hPa - - - - 6,3 km/h (2 Bft) 84,78 %
_ Max-Zeit 15:26 14:22 15:14 11:22 05:00 00:02 04:56 11:36 03:16 13:16 15:06 01:28
Maximum _ 20,2 C 26,7 C 20,0 C 96 % 15 lf 1015,6 hPa 0,2 l/m 2 min 2 min 694 W/m 52,3 km/h
W-SW (7 Bft)
100,00 %
Durchschnitt _ 16,3 C 16,6 C 14,6 C 82 % 3 lf 1012,1 hPa #2,6 l/m #4:48 h #4:04 h 170 W/m 20,1 km/h (4 Bft) 96,39 %
© 2017 W. Hausmann